Time,TemperatureF,DewpointF,PressureIn,WindDirection,WindDirectionDegrees,WindSpeedMPH,WindSpeedGustMPH,Humidity,HourlyPrecipIn,Conditions,Clouds,dailyrainin,SoftwareType,DateUTC
2013-09-06 00:00:00,61.3,59.6,29.53,ENE,62,0.0,0.0,94,0.51,,---,0.00,VWS V13.01,2013-09-06 07:00:00,
2013-09-06 00:02:00,61.2,59.4,29.56,ENE,62,0.0,0.0,94,0.51,,---,0.00,VWS V13.01,2013-09-06 07:02:00,
2013-09-06 00:03:00,61.2,59.4,29.56,ENE,62,0.0,0.0,94,0.51,,---,0.00,VWS V13.01,2013-09-06 07:03:00,
2013-09-06 00:04:00,61.2,59.4,29.56,WNW,290,0.0,0.0,94,0.47,,---,0.00,VWS V13.01,2013-09-06 07:04:00,
2013-09-06 00:05:00,61.2,59.4,29.56,WNW,290,0.0,0.0,94,0.55,,---,0.08,VWS V13.01,2013-09-06 07:05:00,
2013-09-06 00:06:00,61.2,59.4,29.56,WNW,290,0.0,0.0,94,0.51,,---,0.08,VWS V13.01,2013-09-06 07:06:00,
2013-09-06 00:07:00,61.3,59.6,29.56,WNW,290,0.0,0.0,94,0.51,,---,0.08,VWS V13.01,2013-09-06 07:07:00,
2013-09-06 00:08:00,61.3,59.6,29.56,WNW,290,0.0,0.0,94,0.51,,---,0.08,VWS V13.01,2013-09-06 07:08:00,
2013-09-06 00:09:00,61.3,59.6,29.56,WNW,290,0.0,0.0,94,0.51,,---,0.08,VWS V13.01,2013-09-06 07:09:00,
2013-09-06 00:11:00,61.3,59.6,29.56,WNW,290,0.0,0.0,94,0.55,,---,0.12,VWS V13.01,2013-09-06 07:11:00,
2013-09-06 00:12:00,61.3,59.6,29.56,West,273,2.7,2.7,94,0.55,,---,0.12,VWS V13.01,2013-09-06 07:12:00,
2013-09-06 00:13:00,61.3,59.6,29.56,West,267,2.7,2.7,94,0.55,,---,0.12,VWS V13.01,2013-09-06 07:13:00,
2013-09-06 00:14:00,61.3,59.6,29.56,West,267,2.7,2.7,94,0.55,,---,0.12,VWS V13.01,2013-09-06 07:14:00,
2013-09-06 00:16:00,61.2,59.4,29.56,West,267,2.7,2.7,94,0.55,,---,0.12,VWS V13.01,2013-09-06 07:16:00,
2013-09-06 00:18:00,61.2,59.4,29.56,West,275,0.0,0.0,94,0.47,,---,0.16,VWS V13.01,2013-09-06 07:18:00,
2013-09-06 00:19:00,61.2,59.4,29.56,West,275,0.0,0.0,94,0.47,,---,0.16,VWS V13.01,2013-09-06 07:19:00,
2013-09-06 00:21:00,61.3,59.6,29.53,East,80,2.2,2.2,94,0.47,,---,0.20,VWS V13.01,2013-09-06 07:21:00,
2013-09-06 00:23:00,61.3,59.6,29.53,East,80,2.2,2.2,94,0.51,,---,0.20,VWS V13.01,2013-09-06 07:23:00,
2013-09-06 00:24:00,61.3,59.6,29.53,East,80,2.2,2.2,94,0.51,,---,0.20,VWS V13.01,2013-09-06 07:24:00,
2013-09-06 00:25:00,61.7,60.0,29.53,East,80,2.2,2.2,94,0.51,,---,0.20,VWS V13.01,2013-09-06 07:25:00,
2013-09-06 00:28:00,61.7,60.0,29.53,East,91,0.0,0.0,94,0.51,,---,0.20,VWS V13.01,2013-09-06 07:28:00,
2013-09-06 00:29:00,61.7,60.0,29.53,East,91,0.0,0.0,94,0.51,,---,0.20,VWS V13.01,2013-09-06 07:29:00,
2013-09-06 00:30:00,61.7,60.0,29.53,East,91,0.0,0.0,94,0.51,,---,0.20,VWS V13.01,2013-09-06 07:30:00,
2013-09-06 00:33:00,61.7,60.0,29.56,East,91,0.0,0.0,94,0.43,,---,0.20,VWS V13.01,2013-09-06 07:33:00,
2013-09-06 00:34:00,61.7,60.0,29.56,East,91,0.0,0.0,94,0.43,,---,0.20,VWS V13.01,2013-09-06 07:34:00,
2013-09-06 00:35:00,61.7,60.0,29.56,East,91,0.0,0.0,94,0.43,,---,0.20,VWS V13.01,2013-09-06 07:35:00,
2013-09-06 00:39:00,61.5,59.8,29.56,East,91,0.0,0.0,94,0.35,,---,0.20,VWS V13.01,2013-09-06 07:39:00,
2013-09-06 00:40:00,61.5,59.8,29.56,East,91,0.0,0.0,94,0.35,,---,0.20,VWS V13.01,2013-09-06 07:40:00,
2013-09-06 00:44:00,61.5,59.8,29.56,East,91,0.0,0.0,94,0.43,,---,0.28,VWS V13.01,2013-09-06 07:44:00,
2013-09-06 00:45:00,61.5,59.8,29.56,East,91,0.0,0.0,94,0.43,,---,0.28,VWS V13.01,2013-09-06 07:45:00,
2013-09-06 00:49:00,61.5,59.8,29.56,East,91,0.0,0.0,94,0.43,,---,0.28,VWS V13.01,2013-09-06 07:49:00,
2013-09-06 00:50:00,61.5,59.8,29.56,East,91,0.0,0.0,94,0.31,,---,0.28,VWS V13.01,2013-09-06 07:50:00,
2013-09-06 00:51:00,61.7,60.0,29.56,East,91,0.0,0.0,94,0.31,,---,0.28,VWS V13.01,2013-09-06 07:51:00,
2013-09-06 00:54:00,61.5,59.8,29.56,East,91,0.0,0.0,94,0.28,,---,0.31,VWS V13.01,2013-09-06 07:54:00,
2013-09-06 00:55:00,61.3,59.6,29.56,East,91,0.0,0.0,94,0.31,,---,0.31,VWS V13.01,2013-09-06 07:55:00,
2013-09-06 00:56:00,61.3,59.6,29.56,East,91,0.0,0.0,94,0.31,,---,0.31,VWS V13.01,2013-09-06 07:56:00,
2013-09-06 00:59:00,61.3,59.6,29.56,East,91,0.0,0.0,94,0.31,,---,0.31,VWS V13.01,2013-09-06 07:59:00,
2013-09-06 01:01:00,61.3,59.6,29.56,East,91,0.0,0.0,94,0.31,,---,0.31,VWS V13.01,2013-09-06 08:01:00,
2013-09-06 01:02:00,61.2,59.4,29.56,East,91,0.0,0.0,94,0.31,,---,0.31,VWS V13.01,2013-09-06 08:02:00,
2013-09-06 01:04:00,61.2,59.4,29.56,East,91,0.0,0.0,94,0.31,,---,0.39,VWS V13.01,2013-09-06 08:04:00,
2013-09-06 01:05:00,61.2,59.4,29.56,East,91,0.0,0.0,94,0.39,,---,0.39,VWS V13.01,2013-09-06 08:05:00,
2013-09-06 01:06:00,61.2,59.4,29.56,East,91,0.0,0.0,94,0.31,,---,0.39,VWS V13.01,2013-09-06 08:06:00,
2013-09-06 01:07:00,61.2,59.4,29.56,East,91,0.0,0.0,94,0.31,,---,0.39,VWS V13.01,2013-09-06 08:07:00,
2013-09-06 01:09:00,61.2,59.4,29.56,East,91,0.0,0.0,94,0.31,,---,0.39,VWS V13.01,2013-09-06 08:09:00,
2013-09-06 01:10:00,61.2,59.4,29.56,East,91,0.0,0.0,94,0.31,,---,0.39,VWS V13.01,2013-09-06 08:10:00,
2013-09-06 01:11:00,61.2,59.4,29.56,East,91,0.0,0.0,94,0.31,,---,0.39,VWS V13.01,2013-09-06 08:11:00,
2013-09-06 01:12:00,61.2,59.4,29.56,East,91,0.0,0.0,94,0.28,,---,0.39,VWS V13.01,2013-09-06 08:12:00,
2013-09-06 01:13:00,61.2,59.4,29.56,East,91,0.0,0.0,94,0.28,,---,0.39,VWS V13.01,2013-09-06 08:13:00,
2013-09-06 01:14:00,61.2,59.4,29.56,East,91,0.0,0.0,94,0.35,,---,0.47,VWS V13.01,2013-09-06 08:14:00,
2013-09-06 01:15:00,61.2,59.4,29.56,East,91,0.0,0.0,94,0.35,,---,0.47,VWS V13.01,2013-09-06 08:15:00,
2013-09-06 01:16:00,61.2,59.4,29.56,East,91,0.0,0.0,94,0.35,,---,0.47,VWS V13.01,2013-09-06 08:16:00,
2013-09-06 01:18:00,61.0,59.2,29.56,East,91,0.0,0.0,94,0.35,,---,0.47,VWS V13.01,2013-09-06 08:18:00,
2013-09-06 01:19:00,61.0,59.5,29.56,East,91,0.0,0.0,95,0.31,,---,0.47,VWS V13.01,2013-09-06 08:19:00,
2013-09-06 01:20:00,61.0,59.5,29.56,East,91,0.0,0.0,95,0.31,,---,0.47,VWS V13.01,2013-09-06 08:20:00,
2013-09-06 01:21:00,61.2,59.7,29.56,East,91,0.0,0.0,95,0.31,,---,0.47,VWS V13.01,2013-09-06 08:21:00,
2013-09-06 01:23:00,61.3,59.6,29.56,East,91,0.0,0.0,94,0.28,,---,0.47,VWS V13.01,2013-09-06 08:23:00,
2013-09-06 01:24:00,61.3,59.6,29.56,East,91,0.0,0.0,94,0.28,,---,0.47,VWS V13.01,2013-09-06 08:24:00,
2013-09-06 01:25:00,61.3,59.6,29.56,East,91,0.0,0.0,94,0.28,,---,0.47,VWS V13.01,2013-09-06 08:25:00,
2013-09-06 01:27:00,61.3,59.6,29.56,East,91,0.0,0.0,94,0.28,,---,0.47,VWS V13.01,2013-09-06 08:27:00,
2013-09-06 01:28:00,61.3,59.6,29.56,East,91,0.0,0.0,94,0.31,,---,0.51,VWS V13.01,2013-09-06 08:28:00,
2013-09-06 01:29:00,61.5,59.8,29.56,East,91,0.0,0.0,94,0.31,,---,0.51,VWS V13.01,2013-09-06 08:29:00,
2013-09-06 01:30:00,61.5,59.8,29.56,East,91,0.0,0.0,94,0.31,,---,0.51,VWS V13.01,2013-09-06 08:30:00,
2013-09-06 01:32:00,61.3,59.6,29.56,East,91,0.0,0.0,94,0.31,,---,0.51,VWS V13.01,2013-09-06 08:32:00,
2013-09-06 01:34:00,61.3,59.6,29.56,East,91,0.0,0.0,94,0.31,,---,0.55,VWS V13.01,2013-09-06 08:34:00,
2013-09-06 01:35:00,61.3,59.6,29.56,East,91,0.0,0.0,94,0.35,,---,0.55,VWS V13.01,2013-09-06 08:35:00,
2013-09-06 01:37:00,61.3,59.6,29.56,East,91,0.0,0.0,94,0.35,,---,0.55,VWS V13.01,2013-09-06 08:37:00,
2013-09-06 01:39:00,61.3,59.6,29.56,East,91,0.0,0.0,94,0.35,,---,0.55,VWS V13.01,2013-09-06 08:39:00,
2013-09-06 01:40:00,61.3,59.6,29.56,East,91,0.0,0.0,94,0.35,,---,0.55,VWS V13.01,2013-09-06 08:40:00,
2013-09-06 01:42:00,61.3,59.6,29.56,East,91,0.0,0.0,94,0.28,,---,0.55,VWS V13.01,2013-09-06 08:42:00,
2013-09-06 01:44:00,61.3,59.6,29.56,East,91,0.0,0.0,94,0.28,,---,0.55,VWS V13.01,2013-09-06 08:44:00,
2013-09-06 01:45:00,61.3,59.6,29.56,East,91,0.0,0.0,94,0.28,,---,0.55,VWS V13.01,2013-09-06 08:45:00,
2013-09-06 01:47:00,61.5,59.8,29.56,East,91,0.0,0.0,94,0.31,,---,0.59,VWS V13.01,2013-09-06 08:47:00,
2013-09-06 01:48:00,61.5,59.8,29.56,East,91,0.0,0.0,94,0.31,,---,0.59,VWS V13.01,2013-09-06 08:48:00,
2013-09-06 01:49:00,61.5,59.8,29.56,East,91,0.0,0.0,94,0.31,,---,0.59,VWS V13.01,2013-09-06 08:49:00,
2013-09-06 01:50:00,61.5,59.8,29.56,East,91,0.0,0.0,94,0.31,,---,0.59,VWS V13.01,2013-09-06 08:50:00,
2013-09-06 01:52:00,61.3,59.6,29.56,East,91,0.0,0.0,94,0.31,,---,0.59,VWS V13.01,2013-09-06 08:52:00,
2013-09-06 01:53:00,61.3,59.6,29.56,East,91,0.0,0.0,94,0.31,,---,0.59,VWS V13.01,2013-09-06 08:53:00,
2013-09-06 01:54:00,61.3,59.6,29.56,East,91,0.0,0.0,94,0.31,,---,0.59,VWS V13.01,2013-09-06 08:54:00,
2013-09-06 01:55:00,61.3,59.6,29.56,East,91,0.0,0.0,94,0.31,,---,0.59,VWS V13.01,2013-09-06 08:55:00,
2013-09-06 01:56:00,61.3,59.6,29.56,East,91,0.0,0.0,94,0.28,,---,0.59,VWS V13.01,2013-09-06 08:56:00,
2013-09-06 01:57:00,61.3,59.6,29.56,East,91,0.0,0.0,94,0.28,,---,0.59,VWS V13.01,2013-09-06 08:57:00,
2013-09-06 01:58:00,61.3,59.6,29.56,East,91,0.0,0.0,94,0.28,,---,0.59,VWS V13.01,2013-09-06 08:58:00,
2013-09-06 01:59:00,61.3,59.6,29.56,East,91,0.0,0.0,94,0.28,,---,0.63,VWS V13.01,2013-09-06 08:59:00,
2013-09-06 02:00:00,61.3,59.6,29.56,East,91,0.0,0.0,94,0.28,,---,0.63,VWS V13.01,2013-09-06 09:00:00,
2013-09-06 02:01:00,61.3,59.6,29.56,East,91,0.0,0.0,94,0.31,,---,0.63,VWS V13.01,2013-09-06 09:01:00,
2013-09-06 02:02:00,61.3,59.6,29.53,East,91,0.0,0.0,94,0.31,,---,0.63,VWS V13.01,2013-09-06 09:02:00,
2013-09-06 02:03:00,61.3,59.6,29.53,East,91,0.0,0.0,94,0.31,,---,0.63,VWS V13.01,2013-09-06 09:03:00,
2013-09-06 02:04:00,61.3,59.6,29.53,East,91,0.0,0.0,94,0.31,,---,0.63,VWS V13.01,2013-09-06 09:04:00,
2013-09-06 02:05:00,61.2,59.4,29.53,East,91,0.0,0.0,94,0.31,,---,0.63,VWS V13.01,2013-09-06 09:05:00,
2013-09-06 02:06:00,61.2,59.4,29.53,East,91,0.0,0.0,94,0.24,,---,0.63,VWS V13.01,2013-09-06 09:06:00,
2013-09-06 02:07:00,61.2,59.4,29.53,East,91,0.0,0.0,94,0.24,,---,0.63,VWS V13.01,2013-09-06 09:07:00,
2013-09-06 02:08:00,61.2,59.4,29.53,East,91,0.0,0.0,94,0.24,,---,0.63,VWS V13.01,2013-09-06 09:08:00,
2013-09-06 02:09:00,61.2,59.4,29.53,East,91,0.0,0.0,94,0.24,,---,0.63,VWS V13.01,2013-09-06 09:09:00,
2013-09-06 02:11:00,61.2,59.4,29.53,East,91,0.0,0.0,94,0.24,,---,0.63,VWS V13.01,2013-09-06 09:11:00,
2013-09-06 02:12:00,61.2,59.4,29.53,East,91,0.0,0.0,94,0.24,,---,0.63,VWS V13.01,2013-09-06 09:12:00,
2013-09-06 02:14:00,61.3,59.6,29.53,East,91,0.0,0.0,94,0.24,,---,0.63,VWS V13.01,2013-09-06 09:14:00,
2013-09-06 02:15:00,61.3,59.6,29.53,East,91,0.0,0.0,94,0.16,,---,0.63,VWS V13.01,2013-09-06 09:15:00,
2013-09-06 02:16:00,61.3,59.6,29.53,East,91,0.0,0.0,94,0.16,,---,0.63,VWS V13.01,2013-09-06 09:16:00,
2013-09-06 02:17:00,61.5,59.8,29.53,East,91,0.0,0.0,94,0.16,,---,0.63,VWS V13.01,2013-09-06 09:17:00,
2013-09-06 02:19:00,61.5,59.8,29.53,East,91,0.0,0.0,94,0.16,,---,0.67,VWS V13.01,2013-09-06 09:19:00,
2013-09-06 02:20:00,61.5,59.8,29.53,East,91,0.0,0.0,94,0.20,,---,0.67,VWS V13.01,2013-09-06 09:20:00,
2013-09-06 02:21:00,61.5,59.8,29.53,East,91,0.0,0.0,94,0.20,,---,0.67,VWS V13.01,2013-09-06 09:21:00,
2013-09-06 02:22:00,61.3,59.6,29.53,East,91,0.0,0.0,94,0.20,,---,0.67,VWS V13.01,2013-09-06 09:22:00,
2013-09-06 02:23:00,61.3,59.6,29.53,East,91,0.0,0.0,94,0.20,,---,0.67,VWS V13.01,2013-09-06 09:23:00,
2013-09-06 02:25:00,61.5,59.8,29.53,East,91,0.0,0.0,94,0.20,,---,0.67,VWS V13.01,2013-09-06 09:25:00,
2013-09-06 02:26:00,61.5,59.8,29.53,East,91,0.0,0.0,94,0.20,,---,0.67,VWS V13.01,2013-09-06 09:26:00,
2013-09-06 02:27:00,61.5,59.8,29.53,East,91,0.0,0.0,94,0.20,,---,0.67,VWS V13.01,2013-09-06 09:27:00,
2013-09-06 02:28:00,61.5,59.8,29.53,East,91,0.0,0.0,94,0.16,,---,0.67,VWS V13.01,2013-09-06 09:28:00,
2013-09-06 02:30:00,61.5,59.8,29.53,East,91,0.0,0.0,94,0.16,,---,0.67,VWS V13.01,2013-09-06 09:30:00,
2013-09-06 02:31:00,61.5,59.8,29.53,East,91,0.0,0.0,94,0.16,,---,0.67,VWS V13.01,2013-09-06 09:31:00,
2013-09-06 02:32:00,61.3,59.6,29.53,East,91,0.0,0.0,94,0.16,,---,0.67,VWS V13.01,2013-09-06 09:32:00,
2013-09-06 02:33:00,61.3,59.6,29.53,East,91,0.0,0.0,94,0.20,,---,0.71,VWS V13.01,2013-09-06 09:33:00,
2013-09-06 02:34:00,61.3,59.6,29.53,East,91,0.0,0.0,94,0.20,,---,0.71,VWS V13.01,2013-09-06 09:34:00,
2013-09-06 02:35:00,61.3,59.6,29.53,East,91,0.0,0.0,94,0.20,,---,0.71,VWS V13.01,2013-09-06 09:35:00,
2013-09-06 02:36:00,61.3,59.6,29.53,East,91,0.0,0.0,94,0.16,,---,0.71,VWS V13.01,2013-09-06 09:36:00,
2013-09-06 02:37:00,61.3,59.6,29.53,East,91,0.0,0.0,94,0.16,,---,0.71,VWS V13.01,2013-09-06 09:37:00,
2013-09-06 02:38:00,61.3,59.6,29.53,East,91,0.0,0.0,94,0.16,,---,0.71,VWS V13.01,2013-09-06 09:38:00,
2013-09-06 02:39:00,61.3,59.6,29.53,East,91,0.0,0.0,94,0.16,,---,0.71,VWS V13.01,2013-09-06 09:39:00,
2013-09-06 02:40:00,61.3,59.6,29.53,East,91,0.0,0.0,94,0.16,,---,0.71,VWS V13.01,2013-09-06 09:40:00,
2013-09-06 02:41:00,61.5,59.8,29.53,East,91,0.0,0.0,94,0.16,,---,0.71,VWS V13.01,2013-09-06 09:41:00,
2013-09-06 02:42:00,61.5,59.8,29.53,East,91,0.0,0.0,94,0.16,,---,0.71,VWS V13.01,2013-09-06 09:42:00,
2013-09-06 02:43:00,61.5,59.8,29.53,East,91,0.0,0.0,94,0.16,,---,0.71,VWS V13.01,2013-09-06 09:43:00,
2013-09-06 02:44:00,61.5,59.8,29.53,East,91,0.0,0.0,94,0.16,,---,0.71,VWS V13.01,2013-09-06 09:44:00,
2013-09-06 02:45:00,61.3,59.6,29.53,East,91,0.0,0.0,94,0.16,,---,0.71,VWS V13.01,2013-09-06 09:45:00,
2013-09-06 02:46:00,61.3,59.6,29.53,East,91,0.0,0.0,94,0.16,,---,0.71,VWS V13.01,2013-09-06 09:46:00,
2013-09-06 02:47:00,61.3,59.6,29.53,East,91,0.0,0.0,94,0.16,,---,0.71,VWS V13.01,2013-09-06 09:47:00,
2013-09-06 02:48:00,61.3,59.6,29.53,East,91,0.0,0.0,94,0.12,,---,0.71,VWS V13.01,2013-09-06 09:48:00,
2013-09-06 02:49:00,61.2,59.4,29.53,East,91,0.0,0.0,94,0.12,,---,0.71,VWS V13.01,2013-09-06 09:49:00,
2013-09-06 02:50:00,61.2,59.4,29.53,East,91,0.0,0.0,94,0.12,,---,0.71,VWS V13.01,2013-09-06 09:50:00,
2013-09-06 02:51:00,61.2,59.4,29.53,East,91,0.0,0.0,94,0.12,,---,0.71,VWS V13.01,2013-09-06 09:51:00,
2013-09-06 02:52:00,61.2,59.4,29.53,East,91,0.0,0.0,94,0.12,,---,0.71,VWS V13.01,2013-09-06 09:52:00,
2013-09-06 02:53:00,61.2,59.4,29.53,East,91,0.0,0.0,94,0.12,,---,0.71,VWS V13.01,2013-09-06 09:53:00,
2013-09-06 02:54:00,61.2,59.4,29.53,East,91,0.0,0.0,94,0.12,,---,0.71,VWS V13.01,2013-09-06 09:54:00,
2013-09-06 02:55:00,61.2,59.4,29.53,East,91,0.0,0.0,94,0.12,,---,0.71,VWS V13.01,2013-09-06 09:55:00,
2013-09-06 02:56:00,61.2,59.4,29.53,East,91,0.0,0.0,94,0.12,,---,0.71,VWS V13.01,2013-09-06 09:56:00,
2013-09-06 02:58:00,61.2,59.4,29.53,East,91,0.0,0.0,94,0.12,,---,0.71,VWS V13.01,2013-09-06 09:58:00,
2013-09-06 02:59:00,61.2,59.4,29.53,East,91,0.0,0.0,94,0.12,,---,0.71,VWS V13.01,2013-09-06 09:59:00,
2013-09-06 03:00:00,61.2,59.4,29.53,East,91,0.0,0.0,94,0.12,,---,0.71,VWS V13.01,2013-09-06 10:00:00,
2013-09-06 03:02:00,61.2,59.4,29.53,East,95,0.0,0.0,94,0.08,,---,0.71,VWS V13.01,2013-09-06 10:02:00,
2013-09-06 03:03:00,61.2,59.4,29.53,East,95,0.0,0.0,94,0.08,,---,0.75,VWS V13.01,2013-09-06 10:03:00,
2013-09-06 03:04:00,61.2,59.4,29.53,East,95,0.0,0.0,94,0.12,,---,0.75,VWS V13.01,2013-09-06 10:04:00,
2013-09-06 03:05:00,61.2,59.4,29.53,East,95,0.0,0.0,94,0.12,,---,0.75,VWS V13.01,2013-09-06 10:05:00,
2013-09-06 03:07:00,61.2,59.4,29.53,East,95,0.0,0.0,94,0.12,,---,0.75,VWS V13.01,2013-09-06 10:07:00,
2013-09-06 03:08:00,61.2,59.4,29.53,East,95,0.0,0.0,94,0.12,,---,0.75,VWS V13.01,2013-09-06 10:08:00,
2013-09-06 03:09:00,61.3,59.6,29.53,East,95,0.0,0.0,94,0.12,,---,0.75,VWS V13.01,2013-09-06 10:09:00,
2013-09-06 03:10:00,61.3,59.6,29.53,East,95,0.0,0.0,94,0.12,,---,0.75,VWS V13.01,2013-09-06 10:10:00,
2013-09-06 03:12:00,61.3,59.6,29.53,East,95,0.0,0.0,94,0.12,,---,0.75,VWS V13.01,2013-09-06 10:12:00,
2013-09-06 03:13:00,61.3,59.6,29.53,East,95,0.0,0.0,94,0.12,,---,0.75,VWS V13.01,2013-09-06 10:13:00,
2013-09-06 03:14:00,61.3,59.6,29.53,East,95,0.0,0.0,94,0.12,,---,0.75,VWS V13.01,2013-09-06 10:14:00,
2013-09-06 03:15:00,61.3,59.6,29.53,East,95,0.0,0.0,94,0.12,,---,0.75,VWS V13.01,2013-09-06 10:15:00,
2013-09-06 03:16:00,61.2,59.4,29.53,East,95,0.0,0.0,94,0.12,,---,0.75,VWS V13.01,2013-09-06 10:16:00,
2013-09-06 03:18:00,61.3,59.6,29.50,East,95,0.0,0.0,94,0.12,,---,0.75,VWS V13.01,2013-09-06 10:18:00,
2013-09-06 03:19:00,61.3,59.6,29.50,East,95,0.0,0.0,94,0.12,,---,0.75,VWS V13.01,2013-09-06 10:19:00,
2013-09-06 03:21:00,61.2,59.4,29.50,East,95,0.0,0.0,94,0.08,,---,0.75,VWS V13.01,2013-09-06 10:21:00,
2013-09-06 03:23:00,61.2,59.4,29.50,East,95,0.0,0.0,94,0.08,,---,0.75,VWS V13.01,2013-09-06 10:23:00,
2013-09-06 03:24:00,61.2,59.4,29.50,East,95,0.0,0.0,94,0.08,,---,0.75,VWS V13.01,2013-09-06 10:24:00,
2013-09-06 03:25:00,61.2,59.4,29.50,East,95,0.0,0.0,94,0.08,,---,0.79,VWS V13.01,2013-09-06 10:25:00,
2013-09-06 03:26:00,61.2,59.4,29.50,East,95,0.0,0.0,94,0.08,,---,0.79,VWS V13.01,2013-09-06 10:26:00,
2013-09-06 03:27:00,61.2,59.4,29.50,East,95,0.0,0.0,94,0.12,,---,0.79,VWS V13.01,2013-09-06 10:27:00,
2013-09-06 03:28:00,61.2,59.4,29.50,East,95,0.0,0.0,94,0.16,,---,0.83,VWS V13.01,2013-09-06 10:28:00,
2013-09-06 03:29:00,61.2,59.4,29.50,East,95,0.0,0.0,94,0.16,,---,0.83,VWS V13.01,2013-09-06 10:29:00,
2013-09-06 03:30:00,61.3,59.6,29.50,East,95,0.0,0.0,94,0.16,,---,0.83,VWS V13.01,2013-09-06 10:30:00,
2013-09-06 03:31:00,61.3,59.6,29.50,East,95,0.0,0.0,94,0.16,,---,0.83,VWS V13.01,2013-09-06 10:31:00,
2013-09-06 03:32:00,61.3,59.6,29.50,East,95,0.0,0.0,94,0.16,,---,0.83,VWS V13.01,2013-09-06 10:32:00,
2013-09-06 03:34:00,61.3,59.6,29.50,East,95,0.0,0.0,94,0.12,,---,0.83,VWS V13.01,2013-09-06 10:34:00,
2013-09-06 03:36:00,61.2,59.4,29.53,East,95,0.0,0.0,94,0.12,,---,0.83,VWS V13.01,2013-09-06 10:36:00,
2013-09-06 03:37:00,61.2,59.4,29.53,East,95,0.0,0.0,94,0.12,,---,0.83,VWS V13.01,2013-09-06 10:37:00,
2013-09-06 03:39:00,61.2,59.4,29.53,East,95,0.0,0.0,94,0.12,,---,0.83,VWS V13.01,2013-09-06 10:39:00,
2013-09-06 03:41:00,61.3,59.6,29.53,East,95,0.0,0.0,94,0.12,,---,0.83,VWS V13.01,2013-09-06 10:41:00,
2013-09-06 03:42:00,61.3,59.6,29.53,East,95,0.0,0.0,94,0.12,,---,0.83,VWS V13.01,2013-09-06 10:42:00,
2013-09-06 03:43:00,61.3,59.6,29.53,East,95,0.0,0.0,94,0.12,,---,0.83,VWS V13.01,2013-09-06 10:43:00,
2013-09-06 03:44:00,61.3,59.6,29.53,East,95,0.0,0.0,94,0.12,,---,0.83,VWS V13.01,2013-09-06 10:44:00,
2013-09-06 03:46:00,61.0,59.5,29.53,East,95,0.0,0.0,95,0.12,,---,0.83,VWS V13.01,2013-09-06 10:46:00,
2013-09-06 03:47:00,61.0,59.5,29.53,East,95,0.0,0.0,95,0.12,,---,0.83,VWS V13.01,2013-09-06 10:47:00,
2013-09-06 03:49:00,61.2,59.4,29.53,East,95,0.0,0.0,94,0.12,,---,0.83,VWS V13.01,2013-09-06 10:49:00,
2013-09-06 03:51:00,61.3,59.6,29.53,East,95,0.0,0.0,94,0.12,,---,0.83,VWS V13.01,2013-09-06 10:51:00,
2013-09-06 03:52:00,61.3,59.6,29.53,East,95,0.0,0.0,94,0.12,,---,0.83,VWS V13.01,2013-09-06 10:52:00,
2013-09-06 03:54:00,61.3,59.6,29.53,East,95,0.0,0.0,94,0.12,,---,0.83,VWS V13.01,2013-09-06 10:54:00,
2013-09-06 03:56:00,61.3,59.6,29.53,East,95,0.0,0.0,94,0.12,,---,0.83,VWS V13.01,2013-09-06 10:56:00,
2013-09-06 03:57:00,61.2,59.7,29.53,East,95,0.0,0.0,95,0.12,,---,0.83,VWS V13.01,2013-09-06 10:57:00,
2013-09-06 03:59:00,61.2,59.7,29.53,East,95,0.0,0.0,95,0.16,,---,0.87,VWS V13.01,2013-09-06 10:59:00,
2013-09-06 04:00:00,61.2,59.7,29.53,East,95,0.0,0.0,95,0.16,,---,0.87,VWS V13.01,2013-09-06 11:00:00,
2013-09-06 04:01:00,61.2,59.7,29.53,East,95,0.0,0.0,95,0.16,,---,0.87,VWS V13.01,2013-09-06 11:01:00,
2013-09-06 04:03:00,61.2,59.7,29.53,East,95,0.0,0.0,95,0.16,,---,0.87,VWS V13.01,2013-09-06 11:03:00,
2013-09-06 04:04:00,61.0,59.5,29.53,East,95,0.0,0.0,95,0.16,,---,0.87,VWS V13.01,2013-09-06 11:04:00,
2013-09-06 04:05:00,61.0,59.5,29.53,East,95,0.0,0.0,95,0.12,,---,0.87,VWS V13.01,2013-09-06 11:05:00,
2013-09-06 04:06:00,61.0,59.5,29.53,East,95,0.0,0.0,95,0.12,,---,0.87,VWS V13.01,2013-09-06 11:06:00,
2013-09-06 04:08:00,61.2,59.7,29.53,East,95,0.0,0.0,95,0.12,,---,0.87,VWS V13.01,2013-09-06 11:08:00,
2013-09-06 04:09:00,61.2,59.7,29.53,East,95,0.0,0.0,95,0.12,,---,0.87,VWS V13.01,2013-09-06 11:09:00,
2013-09-06 04:11:00,61.2,59.7,29.53,East,95,0.0,0.0,95,0.12,,---,0.87,VWS V13.01,2013-09-06 11:11:00,
2013-09-06 04:13:00,61.2,59.7,29.53,East,95,0.0,0.0,95,0.16,,---,0.91,VWS V13.01,2013-09-06 11:13:00,
2013-09-06 04:14:00,61.2,59.7,29.53,East,95,0.0,0.0,95,0.16,,---,0.91,VWS V13.01,2013-09-06 11:14:00,
2013-09-06 04:15:00,61.3,59.9,29.53,East,95,0.0,0.0,95,0.16,,---,0.91,VWS V13.01,2013-09-06 11:15:00,
2013-09-06 04:16:00,61.3,59.9,29.53,East,95,0.0,0.0,95,0.16,,---,0.91,VWS V13.01,2013-09-06 11:16:00,
2013-09-06 04:18:00,61.3,59.9,29.53,East,95,0.0,0.0,95,0.16,,---,0.91,VWS V13.01,2013-09-06 11:18:00,
2013-09-06 04:19:00,61.3,59.9,29.53,East,95,0.0,0.0,95,0.16,,---,0.91,VWS V13.01,2013-09-06 11:19:00,
2013-09-06 04:20:00,61.3,59.9,29.53,East,95,0.0,0.0,95,0.16,,---,0.91,VWS V13.01,2013-09-06 11:20:00,
2013-09-06 04:21:00,61.2,59.7,29.53,East,95,0.0,0.0,95,0.16,,---,0.91,VWS V13.01,2013-09-06 11:21:00,
2013-09-06 04:23:00,61.2,59.7,29.53,East,95,0.0,0.0,95,0.16,,---,0.91,VWS V13.01,2013-09-06 11:23:00,
2013-09-06 04:25:00,61.2,59.7,29.53,East,95,0.0,0.0,95,0.16,,---,0.91,VWS V13.01,2013-09-06 11:25:00,
2013-09-06 04:26:00,61.2,59.7,29.53,East,95,0.0,0.0,95,0.16,,---,0.91,VWS V13.01,2013-09-06 11:26:00,
2013-09-06 04:27:00,61.2,59.7,29.53,East,95,0.0,0.0,95,0.12,,---,0.91,VWS V13.01,2013-09-06 11:27:00,
2013-09-06 04:28:00,61.2,59.7,29.53,East,95,0.0,0.0,95,0.12,,---,0.91,VWS V13.01,2013-09-06 11:28:00,
2013-09-06 04:30:00,61.2,59.7,29.53,East,95,0.0,0.0,95,0.08,,---,0.91,VWS V13.01,2013-09-06 11:30:00,
2013-09-06 04:31:00,61.2,59.7,29.53,East,95,0.0,0.0,95,0.08,,---,0.91,VWS V13.01,2013-09-06 11:31:00,
2013-09-06 04:32:00,61.2,59.7,29.53,East,95,0.0,0.0,95,0.08,,---,0.91,VWS V13.01,2013-09-06 11:32:00,
2013-09-06 04:34:00,61.2,59.7,29.53,East,95,0.0,0.0,95,0.08,,---,0.91,VWS V13.01,2013-09-06 11:34:00,
2013-09-06 04:35:00,61.2,59.7,29.53,East,95,0.0,0.0,95,0.08,,---,0.91,VWS V13.01,2013-09-06 11:35:00,
2013-09-06 04:36:00,61.2,59.7,29.53,East,95,0.0,0.0,95,0.08,,---,0.91,VWS V13.01,2013-09-06 11:36:00,
2013-09-06 04:37:00,61.2,59.7,29.53,East,95,0.0,0.0,95,0.08,,---,0.91,VWS V13.01,2013-09-06 11:37:00,
2013-09-06 04:39:00,61.2,59.7,29.53,East,95,0.0,0.0,95,0.08,,---,0.91,VWS V13.01,2013-09-06 11:39:00,
2013-09-06 04:40:00,61.2,59.7,29.53,East,95,0.0,0.0,95,0.08,,---,0.91,VWS V13.01,2013-09-06 11:40:00,
2013-09-06 04:41:00,61.2,59.7,29.53,East,95,0.0,0.0,95,0.08,,---,0.91,VWS V13.01,2013-09-06 11:41:00,
2013-09-06 04:42:00,61.2,59.7,29.53,East,95,0.0,0.0,95,0.08,,---,0.91,VWS V13.01,2013-09-06 11:42:00,
2013-09-06 04:45:00,61.0,59.5,29.53,East,95,0.0,0.0,95,0.08,,---,0.91,VWS V13.01,2013-09-06 11:45:00,
2013-09-06 04:46:00,61.0,59.5,29.53,East,95,0.0,0.0,95,0.08,,---,0.91,VWS V13.01,2013-09-06 11:46:00,
2013-09-06 04:47:00,61.2,59.7,29.53,East,95,0.0,0.0,95,0.08,,---,0.91,VWS V13.01,2013-09-06 11:47:00,
2013-09-06 04:50:00,61.2,59.7,29.53,East,95,0.0,0.0,95,0.08,,---,0.91,VWS V13.01,2013-09-06 11:50:00,
2013-09-06 04:51:00,61.2,59.7,29.53,East,95,0.0,0.0,95,0.08,,---,0.91,VWS V13.01,2013-09-06 11:51:00,
2013-09-06 04:52:00,61.0,59.5,29.53,East,95,0.0,0.0,95,0.08,,---,0.91,VWS V13.01,2013-09-06 11:52:00,
2013-09-06 04:53:00,61.0,59.5,29.53,East,95,0.0,0.0,95,0.08,,---,0.91,VWS V13.01,2013-09-06 11:53:00,
2013-09-06 04:55:00,61.0,59.5,29.53,East,95,0.0,0.0,95,0.08,,---,0.91,VWS V13.01,2013-09-06 11:55:00,
2013-09-06 04:56:00,61.0,59.5,29.53,East,95,0.0,0.0,95,0.08,,---,0.91,VWS V13.01,2013-09-06 11:56:00,
2013-09-06 04:57:00,61.0,59.5,29.53,East,95,0.0,0.0,95,0.08,,---,0.75,VWS V13.01,2013-09-06 11:57:00,
2013-09-06 04:58:00,61.0,59.5,29.53,East,95,0.0,0.0,95,0.08,,---,0.91,VWS V13.01,2013-09-06 11:58:00,
2013-09-06 05:00:00,61.2,59.7,29.53,East,95,0.0,0.0,95,0.04,,---,0.91,VWS V13.01,2013-09-06 12:00:00,
2013-09-06 05:01:00,61.2,59.7,29.53,East,95,0.0,0.0,95,0.04,,---,0.91,VWS V13.01,2013-09-06 12:01:00,
2013-09-06 05:02:00,61.2,59.7,29.53,East,95,0.0,0.0,95,0.04,,---,0.91,VWS V13.01,2013-09-06 12:02:00,
2013-09-06 05:03:00,61.2,59.7,29.53,East,95,0.0,0.0,95,0.04,,---,0.91,VWS V13.01,2013-09-06 12:03:00,
2013-09-06 05:04:00,61.2,59.7,29.53,East,95,0.0,0.0,95,0.04,,---,0.91,VWS V13.01,2013-09-06 12:04:00,
2013-09-06 05:05:00,61.2,59.7,29.53,East,95,0.0,0.0,95,0.04,,---,0.91,VWS V13.01,2013-09-06 12:05:00,
2013-09-06 05:06:00,61.2,59.7,29.53,East,95,0.0,0.0,95,0.04,,---,0.91,VWS V13.01,2013-09-06 12:06:00,
2013-09-06 05:07:00,61.2,59.7,29.53,East,95,0.0,0.0,95,0.04,,---,0.91,VWS V13.01,2013-09-06 12:07:00,
2013-09-06 05:09:00,61.0,59.5,29.53,East,95,0.0,0.0,95,0.04,,---,0.91,VWS V13.01,2013-09-06 12:09:00,
2013-09-06 05:10:00,61.0,59.5,29.53,East,95,0.0,0.0,95,0.04,,---,0.91,VWS V13.01,2013-09-06 12:10:00,
2013-09-06 05:11:00,61.0,59.5,29.53,East,95,0.0,0.0,95,0.04,,---,0.91,VWS V13.01,2013-09-06 12:11:00,
2013-09-06 05:12:00,61.0,59.5,29.53,East,95,0.0,0.0,95,0.04,,---,0.91,VWS V13.01,2013-09-06 12:12:00,
2013-09-06 05:14:00,61.0,59.5,29.53,East,95,0.0,0.0,95,0.00,,---,0.91,VWS V13.01,2013-09-06 12:14:00,
2013-09-06 05:15:00,61.0,59.5,29.53,East,95,0.0,0.0,95,0.00,,---,0.91,VWS V13.01,2013-09-06 12:15:00,
2013-09-06 05:17:00,61.0,59.5,29.53,East,95,0.0,0.0,95,0.00,,---,0.91,VWS V13.01,2013-09-06 12:17:00,
2013-09-06 05:18:00,61.0,59.5,29.53,East,95,0.0,0.0,95,0.00,,---,0.91,VWS V13.01,2013-09-06 12:18:00,
2013-09-06 05:19:00,61.0,59.5,29.53,East,95,0.0,0.0,95,0.00,,---,0.91,VWS V13.01,2013-09-06 12:19:00,
2013-09-06 05:20:00,61.0,59.5,29.53,East,95,0.0,0.0,95,0.00,,---,0.91,VWS V13.01,2013-09-06 12:20:00,
2013-09-06 05:22:00,61.0,59.5,29.53,East,95,0.0,0.0,95,0.00,,---,0.91,VWS V13.01,2013-09-06 12:22:00,
2013-09-06 05:24:00,61.0,59.5,29.53,East,95,0.0,0.0,95,0.00,,---,0.91,VWS V13.01,2013-09-06 12:24:00,
2013-09-06 05:25:00,61.0,59.5,29.53,East,95,0.0,0.0,95,0.00,,---,0.91,VWS V13.01,2013-09-06 12:25:00,
2013-09-06 05:27:00,61.0,59.5,29.53,East,95,0.0,0.0,95,0.00,,---,0.91,VWS V13.01,2013-09-06 12:27:00,
2013-09-06 05:29:00,60.8,59.4,29.53,SSW,197,0.0,0.0,95,0.00,,---,0.91,VWS V13.01,2013-09-06 12:29:00,
2013-09-06 05:30:00,60.8,59.4,29.53,SSW,197,0.0,0.0,95,0.00,,---,0.91,VWS V13.01,2013-09-06 12:30:00,
2013-09-06 05:31:00,60.8,59.4,29.53,SSW,206,0.0,0.0,95,0.00,,---,0.91,VWS V13.01,2013-09-06 12:31:00,
2013-09-06 05:32:00,60.8,59.4,29.53,SSW,206,0.0,0.0,95,0.00,,---,0.91,VWS V13.01,2013-09-06 12:32:00,
2013-09-06 05:34:00,60.8,59.4,29.53,SSW,206,0.0,0.0,95,0.00,,---,0.91,VWS V13.01,2013-09-06 12:34:00,
2013-09-06 05:35:00,60.8,59.4,29.53,SW,221,0.0,0.0,95,0.00,,---,0.91,VWS V13.01,2013-09-06 12:35:00,
2013-09-06 05:36:00,60.8,59.4,29.53,SW,221,0.0,0.0,95,0.00,,---,0.91,VWS V13.01,2013-09-06 12:36:00,
2013-09-06 05:37:00,60.8,59.4,29.53,SW,221,0.0,0.0,95,0.00,,---,0.91,VWS V13.01,2013-09-06 12:37:00,
2013-09-06 05:39:00,60.8,59.4,29.53,SW,221,0.0,0.0,95,0.00,,---,0.91,VWS V13.01,2013-09-06 12:39:00,
2013-09-06 05:40:00,60.8,59.4,29.53,SW,221,0.0,0.0,95,0.00,,---,0.91,VWS V13.01,2013-09-06 12:40:00,
2013-09-06 05:41:00,60.8,59.4,29.53,WSW,253,0.0,0.0,95,0.00,,---,0.91,VWS V13.01,2013-09-06 12:41:00,
2013-09-06 05:42:00,60.8,59.4,29.53,WSW,253,0.0,0.0,95,0.00,,---,0.91,VWS V13.01,2013-09-06 12:42:00,
2013-09-06 05:44:00,60.8,59.7,29.53,WSW,253,0.0,0.0,96,0.00,,---,0.91,VWS V13.01,2013-09-06 12:44:00,
2013-09-06 05:45:00,60.8,59.7,29.53,SW,225,0.0,0.0,96,0.00,,---,0.91,VWS V13.01,2013-09-06 12:45:00,
2013-09-06 05:46:00,60.8,59.7,29.53,SW,225,0.0,0.0,96,0.00,,---,0.91,VWS V13.01,2013-09-06 12:46:00,
2013-09-06 05:47:00,60.8,59.7,29.53,SW,225,0.0,0.0,96,0.00,,---,0.91,VWS V13.01,2013-09-06 12:47:00,
2013-09-06 05:48:00,60.8,59.7,29.53,SW,225,0.0,0.0,96,0.00,,---,0.91,VWS V13.01,2013-09-06 12:48:00,
2013-09-06 05:49:00,60.6,59.5,29.53,SW,225,0.0,0.0,96,0.04,,---,0.94,VWS V13.01,2013-09-06 12:49:00,
2013-09-06 05:50:00,60.6,59.5,29.53,SW,225,0.0,0.0,96,0.04,,---,0.94,VWS V13.01,2013-09-06 12:50:00,
2013-09-06 05:51:00,60.6,59.5,29.53,SW,225,0.0,0.0,96,0.04,,---,0.94,VWS V13.01,2013-09-06 12:51:00,
2013-09-06 05:52:00,60.6,59.5,29.53,SW,225,0.0,0.0,96,0.04,,---,0.94,VWS V13.01,2013-09-06 12:52:00,
2013-09-06 05:54:00,60.8,59.7,29.53,SW,225,0.0,0.0,96,0.04,,---,0.94,VWS V13.01,2013-09-06 12:54:00,
2013-09-06 05:55:00,60.8,59.7,29.53,SW,225,0.0,0.0,96,0.04,,---,0.94,VWS V13.01,2013-09-06 12:55:00,
2013-09-06 05:56:00,60.6,59.5,29.53,SW,225,0.0,0.0,96,0.04,,---,0.94,VWS V13.01,2013-09-06 12:56:00,
2013-09-06 05:57:00,60.8,59.7,29.53,SW,225,0.0,0.0,96,0.04,,---,0.94,VWS V13.01,2013-09-06 12:57:00,
2013-09-06 05:59:00,60.8,59.7,29.53,SW,225,0.0,0.0,96,0.04,,---,0.94,VWS V13.01,2013-09-06 12:59:00,
2013-09-06 06:00:00,60.8,59.7,29.53,SW,225,0.0,0.0,96,0.04,,---,0.94,VWS V13.01,2013-09-06 13:00:00,
2013-09-06 06:01:00,60.8,59.7,29.53,SW,225,0.0,0.0,96,0.04,,---,0.94,VWS V13.01,2013-09-06 13:01:00,
2013-09-06 06:02:00,60.6,59.5,29.53,SW,225,0.0,0.0,96,0.04,,---,0.94,VWS V13.01,2013-09-06 13:02:00,
2013-09-06 06:04:00,60.6,59.5,29.53,SW,225,0.0,0.0,96,0.04,,---,0.94,VWS V13.01,2013-09-06 13:04:00,
2013-09-06 06:05:00,60.6,59.5,29.53,SW,225,0.0,0.0,96,0.04,,---,0.94,VWS V13.01,2013-09-06 13:05:00,
2013-09-06 06:06:00,60.6,59.5,29.53,SW,225,0.0,0.0,96,0.04,,---,0.94,VWS V13.01,2013-09-06 13:06:00,
2013-09-06 06:07:00,60.6,59.5,29.53,SW,225,0.0,0.0,96,0.04,,---,0.94,VWS V13.01,2013-09-06 13:07:00,
2013-09-06 06:08:00,60.6,59.5,29.53,SW,225,0.0,0.0,96,0.04,,---,0.94,VWS V13.01,2013-09-06 13:08:00,
2013-09-06 06:09:00,60.6,59.5,29.53,SW,225,0.0,0.0,96,0.04,,---,0.94,VWS V13.01,2013-09-06 13:09:00,
2013-09-06 06:11:00,60.8,59.7,29.53,SW,225,0.0,0.0,96,0.04,,---,0.94,VWS V13.01,2013-09-06 13:11:00,
2013-09-06 06:12:00,60.8,59.7,29.53,SW,225,0.0,0.0,96,0.04,,---,0.94,VWS V13.01,2013-09-06 13:12:00,
2013-09-06 06:13:00,60.8,59.7,29.53,SW,225,0.0,0.0,96,0.04,,---,0.94,VWS V13.01,2013-09-06 13:13:00,
2013-09-06 06:14:00,60.8,59.7,29.53,SW,225,0.0,0.0,96,0.04,,---,0.94,VWS V13.01,2013-09-06 13:14:00,
2013-09-06 06:16:00,60.8,59.7,29.53,SW,225,0.0,0.0,96,0.04,,---,0.94,VWS V13.01,2013-09-06 13:16:00,
2013-09-06 06:17:00,60.8,59.7,29.53,SW,225,0.0,0.0,96,0.04,,---,0.94,VWS V13.01,2013-09-06 13:17:00,
2013-09-06 06:18:00,60.8,59.7,29.53,SW,225,0.0,0.0,96,0.04,,---,0.94,VWS V13.01,2013-09-06 13:18:00,
2013-09-06 06:20:00,60.8,59.7,29.53,SW,225,0.0,0.0,96,0.04,,---,0.94,VWS V13.01,2013-09-06 13:20:00,
2013-09-06 06:21:00,60.8,59.7,29.53,SW,225,0.0,0.0,96,0.04,,---,0.94,VWS V13.01,2013-09-06 13:21:00,
2013-09-06 06:22:00,60.8,59.7,29.53,SW,225,0.0,0.0,96,0.04,,---,0.94,VWS V13.01,2013-09-06 13:22:00,
2013-09-06 06:23:00,60.8,59.7,29.53,SW,225,0.0,0.0,96,0.04,,---,0.94,VWS V13.01,2013-09-06 13:23:00,
2013-09-06 06:25:00,60.8,59.7,29.53,SW,225,0.0,0.0,96,0.04,,---,0.94,VWS V13.01,2013-09-06 13:25:00,
2013-09-06 06:26:00,60.8,59.7,29.53,SW,225,0.0,0.0,96,0.04,,---,0.94,VWS V13.01,2013-09-06 13:26:00,
2013-09-06 06:27:00,60.8,59.7,29.53,SW,225,0.0,0.0,96,0.04,,---,0.94,VWS V13.01,2013-09-06 13:27:00,
2013-09-06 06:28:00,61.0,59.8,29.53,SW,225,0.0,0.0,96,0.04,,---,0.94,VWS V13.01,2013-09-06 13:28:00,
2013-09-06 06:30:00,61.0,59.8,29.53,SW,225,0.0,0.0,96,0.04,,---,0.94,VWS V13.01,2013-09-06 13:30:00,
2013-09-06 06:31:00,61.0,59.8,29.56,SW,225,0.0,0.0,96,0.04,,---,0.94,VWS V13.01,2013-09-06 13:31:00,
2013-09-06 06:32:00,61.0,59.8,29.56,SW,225,0.0,0.0,96,0.04,,---,0.94,VWS V13.01,2013-09-06 13:32:00,
2013-09-06 06:33:00,61.0,59.8,29.56,SW,225,0.0,0.0,96,0.04,,---,0.94,VWS V13.01,2013-09-06 13:33:00,
2013-09-06 06:36:00,61.0,59.8,29.56,SW,225,0.0,0.0,96,0.04,,---,0.94,VWS V13.01,2013-09-06 13:36:00,
2013-09-06 06:37:00,61.0,59.8,29.56,SW,225,0.0,0.0,96,0.04,,---,0.94,VWS V13.01,2013-09-06 13:37:00,
2013-09-06 06:38:00,61.0,59.5,29.56,SW,225,0.0,0.0,95,0.04,,---,0.94,VWS V13.01,2013-09-06 13:38:00,
2013-09-06 06:42:00,61.2,59.7,29.56,SW,225,0.0,0.0,95,0.04,,---,0.94,VWS V13.01,2013-09-06 13:42:00,
2013-09-06 06:43:00,61.2,59.7,29.56,SW,225,0.0,0.0,95,0.04,,---,0.94,VWS V13.01,2013-09-06 13:43:00,
2013-09-06 06:47:00,61.0,59.5,29.56,SW,225,0.0,0.0,95,0.04,,---,0.94,VWS V13.01,2013-09-06 13:47:00,
2013-09-06 06:48:00,61.0,59.5,29.56,SW,225,0.0,0.0,95,0.04,,---,0.94,VWS V13.01,2013-09-06 13:48:00,
2013-09-06 06:49:00,61.0,59.5,29.56,SW,225,0.0,0.0,95,0.04,,---,0.94,VWS V13.01,2013-09-06 13:49:00,
2013-09-06 06:52:00,61.0,59.5,29.56,SW,225,0.0,0.0,95,0.00,,---,0.94,VWS V13.01,2013-09-06 13:52:00,
2013-09-06 06:53:00,61.0,59.5,29.56,SW,225,0.0,0.0,95,0.00,,---,0.94,VWS V13.01,2013-09-06 13:53:00,
2013-09-06 06:54:00,61.0,59.5,29.56,SW,225,0.0,0.0,95,0.00,,---,0.94,VWS V13.01,2013-09-06 13:54:00,
2013-09-06 06:57:00,61.2,59.7,29.56,SW,225,0.0,0.0,95,0.04,,---,0.98,VWS V13.01,2013-09-06 13:57:00,
2013-09-06 06:58:00,61.2,59.7,29.56,SW,225,0.0,0.0,95,0.04,,---,0.98,VWS V13.01,2013-09-06 13:58:00,
2013-09-06 06:59:00,61.2,59.7,29.56,SW,225,0.0,0.0,95,0.04,,---,0.98,VWS V13.01,2013-09-06 13:59:00,
2013-09-06 07:02:00,61.2,59.7,29.56,SW,225,0.0,0.0,95,0.04,,---,0.98,VWS V13.01,2013-09-06 14:02:00,
2013-09-06 07:03:00,61.0,59.5,29.56,SW,225,0.0,0.0,95,0.04,,---,0.98,VWS V13.01,2013-09-06 14:03:00,
2013-09-06 07:04:00,61.0,59.5,29.56,SW,225,0.0,0.0,95,0.04,,---,0.98,VWS V13.01,2013-09-06 14:04:00,
2013-09-06 07:07:00,61.2,59.7,29.56,SW,225,0.0,0.0,95,0.04,,---,0.98,VWS V13.01,2013-09-06 14:07:00,
2013-09-06 07:08:00,61.0,59.5,29.56,SW,225,0.0,0.0,95,0.04,,---,0.98,VWS V13.01,2013-09-06 14:08:00,
2013-09-06 07:09:00,61.0,59.5,29.56,SW,225,0.0,0.0,95,0.04,,---,0.98,VWS V13.01,2013-09-06 14:09:00,
2013-09-06 07:10:00,61.0,59.5,29.56,SW,225,0.0,0.0,95,0.04,,---,0.98,VWS V13.01,2013-09-06 14:10:00,
2013-09-06 07:12:00,61.0,59.5,29.56,SW,225,0.0,0.0,95,0.04,,---,0.98,VWS V13.01,2013-09-06 14:12:00,
2013-09-06 07:14:00,61.0,59.5,29.56,SW,225,0.0,0.0,95,0.04,,---,0.98,VWS V13.01,2013-09-06 14:14:00,
2013-09-06 07:15:00,61.2,59.7,29.56,SW,225,0.0,0.0,95,0.04,,---,0.98,VWS V13.01,2013-09-06 14:15:00,
2013-09-06 07:16:00,61.2,59.7,29.56,SW,225,0.0,0.0,95,0.04,,---,0.98,VWS V13.01,2013-09-06 14:16:00,
2013-09-06 07:17:00,61.2,59.7,29.56,SW,225,0.0,0.0,95,0.04,,---,0.98,VWS V13.01,2013-09-06 14:17:00,
2013-09-06 07:18:00,61.2,59.7,29.56,SW,225,0.0,0.0,95,0.04,,---,0.98,VWS V13.01,2013-09-06 14:18:00,
2013-09-06 07:19:00,61.2,59.7,29.56,SW,225,0.0,0.0,95,0.04,,---,0.98,VWS V13.01,2013-09-06 14:19:00,
2013-09-06 07:20:00,61.2,59.7,29.56,SW,225,0.0,0.0,95,0.04,,---,0.98,VWS V13.01,2013-09-06 14:20:00,
2013-09-06 07:22:00,61.2,59.7,29.56,SW,225,0.0,0.0,95,0.04,,---,0.98,VWS V13.01,2013-09-06 14:22:00,
2013-09-06 07:23:00,61.0,59.5,29.56,SW,225,0.0,0.0,95,0.04,,---,0.98,VWS V13.01,2013-09-06 14:23:00,
2013-09-06 07:24:00,61.0,59.5,29.56,SW,225,0.0,0.0,95,0.04,,---,0.98,VWS V13.01,2013-09-06 14:24:00,
2013-09-06 07:25:00,61.2,59.7,29.56,SW,225,0.0,0.0,95,0.04,,---,0.98,VWS V13.01,2013-09-06 14:25:00,
2013-09-06 07:27:00,61.2,59.7,29.56,SW,225,0.0,0.0,95,0.04,,---,0.98,VWS V13.01,2013-09-06 14:27:00,
2013-09-06 07:28:00,61.2,59.7,29.56,SW,225,0.0,0.0,95,0.04,,---,0.98,VWS V13.01,2013-09-06 14:28:00,
2013-09-06 07:29:00,61.2,59.7,29.56,SW,225,0.0,0.0,95,0.04,,---,0.98,VWS V13.01,2013-09-06 14:29:00,
2013-09-06 07:30:00,61.2,59.7,29.56,SW,225,0.0,0.0,95,0.04,,---,0.98,VWS V13.01,2013-09-06 14:30:00,
2013-09-06 07:32:00,61.2,59.7,29.56,SW,225,0.0,0.0,95,0.04,,---,0.98,VWS V13.01,2013-09-06 14:32:00,
2013-09-06 07:34:00,61.2,59.7,29.56,SW,225,0.0,0.0,95,0.04,,---,0.98,VWS V13.01,2013-09-06 14:34:00,
2013-09-06 07:35:00,61.2,59.7,29.56,SW,225,0.0,0.0,95,0.04,,---,0.98,VWS V13.01,2013-09-06 14:35:00,
2013-09-06 07:38:00,61.2,59.7,29.56,SW,225,0.0,0.0,95,0.04,,---,0.98,VWS V13.01,2013-09-06 14:38:00,
2013-09-06 07:39:00,61.2,59.7,29.56,SW,225,0.0,0.0,95,0.04,,---,0.98,VWS V13.01,2013-09-06 14:39:00,
2013-09-06 07:41:00,61.2,59.7,29.56,SW,225,0.0,0.0,95,0.04,,---,0.98,VWS V13.01,2013-09-06 14:41:00,
2013-09-06 07:43:00,61.2,60.0,29.56,SW,225,0.0,0.0,96,0.04,,---,0.98,VWS V13.01,2013-09-06 14:43:00,
2013-09-06 07:44:00,61.2,60.0,29.56,SW,225,0.0,0.0,96,0.04,,---,0.98,VWS V13.01,2013-09-06 14:44:00,
2013-09-06 07:45:00,61.2,60.0,29.56,SW,225,0.0,0.0,96,0.04,,---,0.98,VWS V13.01,2013-09-06 14:45:00,
2013-09-06 07:46:00,61.2,60.0,29.56,SW,225,0.0,0.0,96,0.04,,---,0.98,VWS V13.01,2013-09-06 14:46:00,
2013-09-06 07:47:00,61.2,60.0,29.56,SW,225,0.0,0.0,96,0.04,,---,0.98,VWS V13.01,2013-09-06 14:47:00,
2013-09-06 07:48:00,61.2,60.0,29.56,SW,225,0.0,0.0,96,0.04,,---,0.98,VWS V13.01,2013-09-06 14:48:00,
2013-09-06 07:49:00,61.2,60.0,29.56,SW,225,0.0,0.0,96,0.04,,---,0.98,VWS V13.01,2013-09-06 14:49:00,
2013-09-06 07:50:00,61.2,60.0,29.56,SW,225,0.0,0.0,96,0.04,,---,0.98,VWS V13.01,2013-09-06 14:50:00,
2013-09-06 07:51:00,61.3,60.2,29.56,SW,225,0.0,0.0,96,0.04,,---,0.98,VWS V13.01,2013-09-06 14:51:00,
2013-09-06 07:53:00,61.3,60.2,29.56,SW,225,0.0,0.0,96,0.04,,---,0.98,VWS V13.01,2013-09-06 14:53:00,
2013-09-06 07:54:00,61.3,60.2,29.56,SW,225,0.0,0.0,96,0.04,,---,0.98,VWS V13.01,2013-09-06 14:54:00,
2013-09-06 07:55:00,61.3,60.2,29.56,SW,225,0.0,0.0,96,0.04,,---,0.98,VWS V13.01,2013-09-06 14:55:00,
2013-09-06 07:57:00,61.3,60.2,29.56,SW,225,0.0,0.0,96,0.00,,---,0.98,VWS V13.01,2013-09-06 14:57:00,
2013-09-06 07:58:00,61.3,60.2,29.56,SW,225,0.0,0.0,96,0.00,,---,0.98,VWS V13.01,2013-09-06 14:58:00,
2013-09-06 07:59:00,61.3,60.2,29.56,SW,225,0.0,0.0,96,0.00,,---,0.98,VWS V13.01,2013-09-06 14:59:00,
2013-09-06 08:00:00,61.3,60.2,29.56,SW,225,0.0,0.0,96,0.00,,---,0.98,VWS V13.01,2013-09-06 15:00:00,
2013-09-06 08:02:00,61.3,60.2,29.56,SW,225,0.0,0.0,96,0.00,,---,0.98,VWS V13.01,2013-09-06 15:02:00,
2013-09-06 08:03:00,61.3,60.2,29.56,SW,225,0.0,0.0,96,0.00,,---,0.98,VWS V13.01,2013-09-06 15:03:00,
2013-09-06 08:04:00,61.3,60.2,29.56,SW,225,0.0,0.0,96,0.00,,---,0.98,VWS V13.01,2013-09-06 15:04:00,
2013-09-06 08:05:00,61.3,60.2,29.56,SW,225,0.0,0.0,96,0.00,,---,0.98,VWS V13.01,2013-09-06 15:05:00,
2013-09-06 08:08:00,61.3,60.2,29.56,SW,225,0.0,0.0,96,0.00,,---,0.98,VWS V13.01,2013-09-06 15:08:00,
2013-09-06 08:09:00,61.5,60.4,29.56,SW,225,0.0,0.0,96,0.00,,---,0.98,VWS V13.01,2013-09-06 15:09:00,
2013-09-06 08:10:00,61.5,60.4,29.56,SW,225,0.0,0.0,96,0.00,,---,0.98,VWS V13.01,2013-09-06 15:10:00,
2013-09-06 08:13:00,61.3,60.2,29.56,SW,225,0.0,0.0,96,0.00,,---,0.98,VWS V13.01,2013-09-06 15:13:00,
2013-09-06 08:14:00,61.3,60.2,29.56,SW,225,0.0,0.0,96,0.00,,---,0.98,VWS V13.01,2013-09-06 15:14:00,
2013-09-06 08:15:00,61.3,60.2,29.56,SW,225,0.0,0.0,96,0.00,,---,0.98,VWS V13.01,2013-09-06 15:15:00,
2013-09-06 08:16:00,61.3,60.2,29.56,SW,225,0.0,0.0,96,0.00,,---,0.98,VWS V13.01,2013-09-06 15:16:00,
2013-09-06 08:18:00,61.5,60.4,29.56,SW,225,0.0,0.0,96,0.00,,---,0.98,VWS V13.01,2013-09-06 15:18:00,
2013-09-06 08:19:00,61.5,60.4,29.56,SW,225,0.0,0.0,96,0.00,,---,0.98,VWS V13.01,2013-09-06 15:19:00,
2013-09-06 08:20:00,61.5,60.4,29.56,SW,225,0.0,0.0,96,0.00,,---,0.98,VWS V13.01,2013-09-06 15:20:00,
2013-09-06 08:21:00,61.5,60.4,29.56,SW,225,0.0,0.0,96,0.00,,---,0.98,VWS V13.01,2013-09-06 15:21:00,
2013-09-06 08:23:00,61.5,60.4,29.56,SW,225,0.0,0.0,96,0.00,,---,0.98,VWS V13.01,2013-09-06 15:23:00,
2013-09-06 08:24:00,61.5,60.4,29.56,SW,225,0.0,0.0,96,0.00,,---,0.98,VWS V13.01,2013-09-06 15:24:00,
2013-09-06 08:25:00,61.5,60.4,29.56,SW,225,0.0,0.0,96,0.00,,---,0.98,VWS V13.01,2013-09-06 15:25:00,
2013-09-06 08:26:00,61.5,60.4,29.56,SW,225,0.0,0.0,96,0.00,,---,0.98,VWS V13.01,2013-09-06 15:26:00,
2013-09-06 08:28:00,61.7,60.5,29.56,SW,225,0.0,0.0,96,0.00,,---,0.98,VWS V13.01,2013-09-06 15:28:00,
2013-09-06 08:29:00,61.7,60.5,29.56,SW,225,0.0,0.0,96,0.00,,---,0.98,VWS V13.01,2013-09-06 15:29:00,
2013-09-06 08:30:00,61.9,60.7,29.56,SW,225,0.0,0.0,96,0.00,,---,0.98,VWS V13.01,2013-09-06 15:30:00,
2013-09-06 08:31:00,61.9,60.7,29.56,SW,225,0.0,0.0,96,0.00,,---,0.98,VWS V13.01,2013-09-06 15:31:00,
2013-09-06 08:34:00,61.9,60.7,29.59,SW,225,0.0,0.0,96,0.00,,---,0.98,VWS V13.01,2013-09-06 15:34:00,
2013-09-06 08:35:00,61.9,60.7,29.59,SW,225,0.0,0.0,96,0.00,,---,0.98,VWS V13.01,2013-09-06 15:35:00,
2013-09-06 08:36:00,61.9,60.7,29.59,SW,225,0.0,0.0,96,0.00,,---,0.98,VWS V13.01,2013-09-06 15:36:00,
2013-09-06 08:37:00,61.9,60.7,29.59,SW,225,0.0,0.0,96,0.00,,---,0.98,VWS V13.01,2013-09-06 15:37:00,
2013-09-06 08:39:00,61.9,60.7,29.59,SW,225,0.0,0.0,96,0.00,,---,0.98,VWS V13.01,2013-09-06 15:39:00,
2013-09-06 08:41:00,61.9,60.7,29.59,SW,225,0.0,0.0,96,0.00,,---,0.98,VWS V13.01,2013-09-06 15:41:00,
2013-09-06 08:42:00,62.1,60.9,29.59,SW,225,0.0,0.0,96,0.00,,---,0.98,VWS V13.01,2013-09-06 15:42:00,
2013-09-06 08:44:00,62.1,60.9,29.59,SW,225,0.0,0.0,96,0.00,,---,0.98,VWS V13.01,2013-09-06 15:44:00,
2013-09-06 08:45:00,62.1,60.9,29.59,SW,225,0.0,0.0,96,0.00,,---,0.98,VWS V13.01,2013-09-06 15:45:00,
2013-09-06 08:46:00,62.1,60.9,29.59,SW,225,0.0,0.0,96,0.00,,---,0.98,VWS V13.01,2013-09-06 15:46:00,
2013-09-06 08:48:00,62.1,60.9,29.59,SW,225,0.0,0.0,96,0.00,,---,0.98,VWS V13.01,2013-09-06 15:48:00,
2013-09-06 08:49:00,62.1,60.9,29.59,SW,225,0.0,0.0,96,0.00,,---,0.98,VWS V13.01,2013-09-06 15:49:00,
2013-09-06 08:50:00,62.1,60.9,29.59,SW,225,0.0,0.0,96,0.00,,---,0.98,VWS V13.01,2013-09-06 15:50:00,
2013-09-06 08:51:00,62.1,60.9,29.59,SW,225,0.0,0.0,96,0.00,,---,0.98,VWS V13.01,2013-09-06 15:51:00,
2013-09-06 08:53:00,62.1,60.9,29.59,SW,225,0.0,0.0,96,0.00,,---,0.98,VWS V13.01,2013-09-06 15:53:00,
2013-09-06 08:54:00,62.1,60.9,29.59,SW,225,0.0,0.0,96,0.00,,---,0.98,VWS V13.01,2013-09-06 15:54:00,
2013-09-06 08:56:00,62.2,61.1,29.59,SW,225,0.0,0.0,96,0.00,,---,0.98,VWS V13.01,2013-09-06 15:56:00,
2013-09-06 08:57:00,62.2,61.1,29.59,SW,225,0.0,0.0,96,0.00,,---,0.98,VWS V13.01,2013-09-06 15:57:00,
2013-09-06 08:59:00,62.2,61.1,29.59,SW,225,0.0,0.0,96,0.00,,---,0.98,VWS V13.01,2013-09-06 15:59:00,
2013-09-06 09:00:00,62.2,61.1,29.59,SW,225,0.0,0.0,96,0.00,,---,0.98,VWS V13.01,2013-09-06 16:00:00,
2013-09-06 09:01:00,62.2,61.1,29.59,SW,225,0.0,0.0,96,0.00,,---,0.98,VWS V13.01,2013-09-06 16:01:00,
2013-09-06 09:02:00,62.2,61.1,29.59,SW,225,0.0,0.0,96,0.00,,---,0.98,VWS V13.01,2013-09-06 16:02:00,
2013-09-06 09:04:00,62.4,61.3,29.59,SW,225,0.0,0.0,96,0.00,,---,0.98,VWS V13.01,2013-09-06 16:04:00,
2013-09-06 09:05:00,62.4,61.3,29.59,SW,225,0.0,0.0,96,0.00,,---,0.98,VWS V13.01,2013-09-06 16:05:00,
2013-09-06 09:06:00,62.4,61.3,29.59,SW,225,0.0,0.0,96,0.00,,---,0.98,VWS V13.01,2013-09-06 16:06:00,
2013-09-06 09:07:00,62.4,61.3,29.59,SW,225,0.0,0.0,96,0.00,,---,0.98,VWS V13.01,2013-09-06 16:07:00,
2013-09-06 09:10:00,62.4,61.3,29.59,SW,225,0.0,0.0,96,0.00,,---,0.98,VWS V13.01,2013-09-06 16:10:00,
2013-09-06 09:11:00,62.4,61.3,29.59,SW,225,0.0,0.0,96,0.00,,---,0.98,VWS V13.01,2013-09-06 16:11:00,
2013-09-06 09:12:00,62.4,61.3,29.59,SW,225,0.0,0.0,96,0.00,,---,0.98,VWS V13.01,2013-09-06 16:12:00,
2013-09-06 09:15:00,62.8,61.6,29.59,SW,225,0.0,0.0,96,0.00,,---,0.98,VWS V13.01,2013-09-06 16:15:00,
2013-09-06 09:17:00,62.8,61.3,29.59,SW,225,0.0,0.0,95,0.00,,---,0.98,VWS V13.01,2013-09-06 16:17:00,
2013-09-06 09:18:00,62.8,61.3,29.59,SW,225,0.0,0.0,95,0.00,,---,0.98,VWS V13.01,2013-09-06 16:18:00,
2013-09-06 09:20:00,62.8,61.3,29.59,SW,225,0.0,0.0,95,0.00,,---,0.98,VWS V13.01,2013-09-06 16:20:00,
2013-09-06 09:22:00,63.0,61.5,29.59,SW,225,0.0,0.0,95,0.00,,---,0.98,VWS V13.01,2013-09-06 16:22:00,
2013-09-06 09:23:00,63.0,61.5,29.59,SW,225,0.0,0.0,95,0.00,,---,0.98,VWS V13.01,2013-09-06 16:23:00,
2013-09-06 09:25:00,63.0,61.5,29.59,SW,225,0.0,0.0,95,0.00,,---,0.98,VWS V13.01,2013-09-06 16:25:00,
2013-09-06 09:27:00,63.1,61.7,29.59,SW,225,0.0,0.0,95,0.00,,---,0.98,VWS V13.01,2013-09-06 16:27:00,
2013-09-06 09:29:00,63.1,61.7,29.59,SW,225,0.0,0.0,95,0.00,,---,0.98,VWS V13.01,2013-09-06 16:29:00,
2013-09-06 09:30:00,63.1,61.7,29.59,SW,225,0.0,0.0,95,0.00,,---,0.98,VWS V13.01,2013-09-06 16:30:00,
2013-09-06 09:32:00,63.3,61.9,29.59,SW,225,0.0,0.0,95,0.00,,---,0.98,VWS V13.01,2013-09-06 16:32:00,
2013-09-06 09:34:00,63.1,61.7,29.59,SW,225,0.0,0.0,95,0.00,,---,0.98,VWS V13.01,2013-09-06 16:34:00,
2013-09-06 09:35:00,63.1,61.7,29.59,SW,225,0.0,0.0,95,0.00,,---,0.98,VWS V13.01,2013-09-06 16:35:00,
2013-09-06 09:37:00,63.1,61.7,29.59,SW,225,0.0,0.0,95,0.00,,---,0.98,VWS V13.01,2013-09-06 16:37:00,
2013-09-06 09:40:00,63.1,61.7,29.59,SW,225,0.0,0.0,95,0.00,,---,0.98,VWS V13.01,2013-09-06 16:40:00,
2013-09-06 09:42:00,63.1,61.7,29.59,SW,225,0.0,0.0,95,0.00,,---,0.98,VWS V13.01,2013-09-06 16:42:00,
2013-09-06 09:43:00,63.3,61.9,29.59,SW,225,0.0,0.0,95,0.00,,---,0.98,VWS V13.01,2013-09-06 16:43:00,
2013-09-06 09:45:00,63.3,61.9,29.59,SW,225,0.0,0.0,95,0.00,,---,0.98,VWS V13.01,2013-09-06 16:45:00,
2013-09-06 09:46:00,63.3,61.9,29.59,SW,225,0.0,0.0,95,0.00,,---,0.98,VWS V13.01,2013-09-06 16:46:00,
2013-09-06 09:47:00,63.3,61.9,29.59,SW,225,0.0,0.0,95,0.00,,---,0.98,VWS V13.01,2013-09-06 16:47:00,
2013-09-06 09:49:00,63.3,61.9,29.59,SW,225,0.0,0.0,95,0.00,,---,0.98,VWS V13.01,2013-09-06 16:49:00,
2013-09-06 09:50:00,63.1,61.7,29.59,SW,225,0.0,0.0,95,0.00,,---,0.98,VWS V13.01,2013-09-06 16:50:00,
2013-09-06 09:51:00,63.1,61.7,29.59,SW,225,0.0,0.0,95,0.00,,---,0.98,VWS V13.01,2013-09-06 16:51:00,
2013-09-06 09:52:00,63.1,61.7,29.59,SW,225,0.0,0.0,95,0.00,,---,0.98,VWS V13.01,2013-09-06 16:52:00,
2013-09-06 09:54:00,63.1,61.7,29.59,SW,225,0.0,0.0,95,0.00,,---,0.98,VWS V13.01,2013-09-06 16:54:00,
2013-09-06 09:55:00,63.1,61.7,29.59,SW,225,0.0,0.0,95,0.00,,---,0.98,VWS V13.01,2013-09-06 16:55:00,
2013-09-06 09:56:00,63.1,61.7,29.59,SW,225,0.0,0.0,95,0.00,,---,0.98,VWS V13.01,2013-09-06 16:56:00,
2013-09-06 09:57:00,63.1,61.7,29.59,West,259,0.0,0.0,95,0.00,,---,0.98,VWS V13.01,2013-09-06 16:57:00,
2013-09-06 09:59:00,63.1,62.0,29.59,West,259,0.0,0.0,96,0.00,,---,0.98,VWS V13.01,2013-09-06 16:59:00,
2013-09-06 10:00:00,63.1,62.0,29.59,West,259,0.0,0.0,96,0.00,,---,0.98,VWS V13.01,2013-09-06 17:00:00,
2013-09-06 10:01:00,63.3,61.9,29.59,West,259,0.0,0.0,95,0.00,,---,0.98,VWS V13.01,2013-09-06 17:01:00,
2013-09-06 10:02:00,63.5,62.0,29.59,West,259,0.0,0.0,95,0.00,,---,0.98,VWS V13.01,2013-09-06 17:02:00,
2013-09-06 10:04:00,63.5,62.0,29.59,West,259,0.0,0.0,95,0.00,,---,0.98,VWS V13.01,2013-09-06 17:04:00,
2013-09-06 10:05:00,63.5,62.0,29.59,West,259,0.0,0.0,95,0.00,,---,0.98,VWS V13.01,2013-09-06 17:05:00,
2013-09-06 10:06:00,63.5,62.0,29.59,West,259,0.0,0.0,95,0.00,,---,0.98,VWS V13.01,2013-09-06 17:06:00,
2013-09-06 10:07:00,63.3,61.9,29.59,West,259,0.0,0.0,95,0.00,,---,0.98,VWS V13.01,2013-09-06 17:07:00,
2013-09-06 10:08:00,63.3,61.9,29.59,West,259,0.0,0.0,95,0.00,,---,0.98,VWS V13.01,2013-09-06 17:08:00,
2013-09-06 10:09:00,63.3,61.9,29.59,West,259,0.0,0.0,95,0.00,,---,0.98,VWS V13.01,2013-09-06 17:09:00,
2013-09-06 10:10:00,63.5,62.0,29.59,West,259,0.0,0.0,95,0.00,,---,0.98,VWS V13.01,2013-09-06 17:10:00,
2013-09-06 10:11:00,63.5,62.0,29.59,West,259,0.0,0.0,95,0.00,,---,0.98,VWS V13.01,2013-09-06 17:11:00,
2013-09-06 10:12:00,63.5,62.0,29.59,West,259,0.0,0.0,95,0.00,,---,0.98,VWS V13.01,2013-09-06 17:12:00,
2013-09-06 10:13:00,63.5,62.0,29.59,West,259,0.0,0.0,95,0.00,,---,0.98,VWS V13.01,2013-09-06 17:13:00,
2013-09-06 10:15:00,63.5,62.0,29.59,West,259,0.0,0.0,95,0.00,,---,0.98,VWS V13.01,2013-09-06 17:15:00,
2013-09-06 10:16:00,63.5,62.0,29.59,SE,145,0.0,0.0,95,0.00,,---,0.98,VWS V13.01,2013-09-06 17:16:00,
2013-09-06 10:17:00,63.7,62.2,29.59,SE,145,0.0,0.0,95,0.00,,---,0.98,VWS V13.01,2013-09-06 17:17:00,
2013-09-06 10:18:00,63.7,62.2,29.59,SW,222,0.0,0.0,95,0.00,,---,0.98,VWS V13.01,2013-09-06 17:18:00,
2013-09-06 10:20:00,63.5,62.0,29.59,SW,222,0.0,0.0,95,0.00,,---,0.98,VWS V13.01,2013-09-06 17:20:00,
2013-09-06 10:21:00,63.5,62.0,29.59,SW,222,0.0,0.0,95,0.00,,---,0.98,VWS V13.01,2013-09-06 17:21:00,
2013-09-06 10:22:00,63.5,62.0,29.59,SW,222,0.0,0.0,95,0.00,,---,0.98,VWS V13.01,2013-09-06 17:22:00,
2013-09-06 10:23:00,63.5,62.0,29.59,SW,223,0.0,0.0,95,0.00,,---,0.98,VWS V13.01,2013-09-06 17:23:00,
2013-09-06 10:25:00,63.5,62.0,29.59,SW,223,0.0,0.0,95,0.00,,---,0.98,VWS V13.01,2013-09-06 17:25:00,
2013-09-06 10:26:00,63.5,62.0,29.59,SW,223,0.0,0.0,95,0.00,,---,0.98,VWS V13.01,2013-09-06 17:26:00,
2013-09-06 10:27:00,63.3,61.9,29.59,SW,223,0.0,0.0,95,0.00,,---,0.98,VWS V13.01,2013-09-06 17:27:00,
2013-09-06 10:28:00,63.3,61.9,29.59,SW,223,0.0,0.0,95,0.00,,---,0.98,VWS V13.01,2013-09-06 17:28:00,
2013-09-06 10:30:00,63.3,61.9,29.59,SW,223,0.0,0.0,95,0.00,,---,0.98,VWS V13.01,2013-09-06 17:30:00,
2013-09-06 10:31:00,63.3,61.9,29.59,SW,223,0.0,0.0,95,0.00,,---,0.98,VWS V13.01,2013-09-06 17:31:00,
2013-09-06 10:32:00,63.3,61.9,29.59,SW,223,0.0,0.0,95,0.00,,---,0.98,VWS V13.01,2013-09-06 17:32:00,
2013-09-06 10:33:00,63.3,61.9,29.59,SW,223,0.0,0.0,95,0.00,,---,0.98,VWS V13.01,2013-09-06 17:33:00,
2013-09-06 10:35:00,63.1,61.7,29.59,SW,223,0.0,0.0,95,0.00,,---,0.98,VWS V13.01,2013-09-06 17:35:00,
2013-09-06 10:36:00,63.1,61.7,29.59,SW,223,0.0,0.0,95,0.00,,---,0.98,VWS V13.01,2013-09-06 17:36:00,
2013-09-06 10:37:00,63.1,61.7,29.59,SW,229,0.0,0.0,95,0.00,,---,0.98,VWS V13.01,2013-09-06 17:37:00,
2013-09-06 10:38:00,63.1,61.7,29.59,WSW,238,0.0,0.0,95,0.00,,---,0.98,VWS V13.01,2013-09-06 17:38:00,
2013-09-06 10:39:00,63.1,61.7,29.59,WSW,238,0.0,0.0,95,0.00,,---,0.98,VWS V13.01,2013-09-06 17:39:00,
2013-09-06 10:41:00,63.1,61.7,29.59,WSW,238,0.0,0.0,95,0.00,,---,0.98,VWS V13.01,2013-09-06 17:41:00,
2013-09-06 10:42:00,63.1,61.7,29.59,SW,233,0.0,0.0,95,0.00,,---,0.98,VWS V13.01,2013-09-06 17:42:00,
2013-09-06 10:43:00,63.1,61.7,29.59,SW,235,0.0,0.0,95,0.00,,---,0.98,VWS V13.01,2013-09-06 17:43:00,
2013-09-06 10:44:00,63.1,61.7,29.59,SW,235,0.0,0.0,95,0.00,,---,0.98,VWS V13.01,2013-09-06 17:44:00,
2013-09-06 10:45:00,63.1,61.7,29.59,SW,235,0.0,0.0,95,0.00,,---,0.98,VWS V13.01,2013-09-06 17:45:00,
2013-09-06 10:46:00,63.1,61.7,29.59,SW,235,0.0,0.0,95,0.00,,---,0.98,VWS V13.01,2013-09-06 17:46:00,
2013-09-06 10:48:00,63.1,61.7,29.59,SW,235,0.0,0.0,95,0.00,,---,0.98,VWS V13.01,2013-09-06 17:48:00,
2013-09-06 10:49:00,63.1,61.7,29.59,SW,235,0.0,0.0,95,0.00,,---,0.98,VWS V13.01,2013-09-06 17:49:00,
2013-09-06 10:51:00,63.1,61.7,29.59,SW,235,0.0,0.0,95,0.00,,---,0.98,VWS V13.01,2013-09-06 17:51:00,
2013-09-06 10:52:00,63.1,61.7,29.59,SW,235,0.0,0.0,95,0.00,,---,0.98,VWS V13.01,2013-09-06 17:52:00,
2013-09-06 10:53:00,63.0,61.5,29.59,SW,235,0.0,0.0,95,0.00,,---,0.98,VWS V13.01,2013-09-06 17:53:00,
2013-09-06 10:54:00,63.0,61.5,29.59,SW,235,0.0,0.0,95,0.00,,---,0.98,VWS V13.01,2013-09-06 17:54:00,
2013-09-06 10:55:00,63.0,61.5,29.59,SW,235,0.0,0.0,95,0.00,,---,0.98,VWS V13.01,2013-09-06 17:55:00,
2013-09-06 10:56:00,63.0,61.5,29.59,SW,235,0.0,0.0,95,0.00,,---,0.98,VWS V13.01,2013-09-06 17:56:00,
2013-09-06 10:57:00,63.0,61.5,29.59,SW,235,0.0,0.0,95,0.00,,---,0.98,VWS V13.01,2013-09-06 17:57:00,
2013-09-06 10:58:00,63.0,61.5,29.59,SW,235,0.0,0.0,95,0.00,,---,0.98,VWS V13.01,2013-09-06 17:58:00,
2013-09-06 10:59:00,63.0,61.5,29.59,SW,235,0.0,0.0,95,0.00,,---,0.98,VWS V13.01,2013-09-06 17:59:00,
2013-09-06 11:00:00,63.0,61.5,29.59,SW,235,0.0,0.0,95,0.00,,---,0.98,VWS V13.01,2013-09-06 18:00:00,
2013-09-06 11:01:00,63.0,61.5,29.59,SW,235,0.0,0.0,95,0.00,,---,0.98,VWS V13.01,2013-09-06 18:01:00,
2013-09-06 11:03:00,63.0,61.5,29.59,SW,235,0.0,0.0,95,0.00,,---,0.98,VWS V13.01,2013-09-06 18:03:00,
2013-09-06 11:04:00,63.0,61.5,29.59,SW,235,0.0,0.0,95,0.00,,---,0.98,VWS V13.01,2013-09-06 18:04:00,
2013-09-06 11:05:00,63.0,61.5,29.59,SW,235,0.0,0.0,95,0.00,,---,0.98,VWS V13.01,2013-09-06 18:05:00,
2013-09-06 11:06:00,63.0,61.5,29.59,SW,235,0.0,0.0,95,0.00,,---,0.98,VWS V13.01,2013-09-06 18:06:00,
2013-09-06 11:08:00,63.0,61.5,29.59,SW,235,0.0,0.0,95,0.00,,---,0.98,VWS V13.01,2013-09-06 18:08:00,
2013-09-06 11:10:00,63.1,61.7,29.59,SW,235,0.0,0.0,95,0.00,,---,0.98,VWS V13.01,2013-09-06 18:10:00,
2013-09-06 11:11:00,63.1,61.7,29.59,SW,235,0.0,0.0,95,0.00,,---,0.98,VWS V13.01,2013-09-06 18:11:00,
2013-09-06 11:13:00,63.1,61.7,29.59,SW,235,0.0,0.0,95,0.00,,---,0.98,VWS V13.01,2013-09-06 18:13:00,
2013-09-06 11:15:00,63.5,62.0,29.59,SW,235,0.0,0.0,95,0.00,,---,0.98,VWS V13.01,2013-09-06 18:15:00,
2013-09-06 11:16:00,63.5,62.0,29.59,SW,235,0.0,0.0,95,0.00,,---,0.98,VWS V13.01,2013-09-06 18:16:00,
2013-09-06 11:19:00,63.5,62.0,29.59,SSW,200,0.0,0.0,95,0.00,,---,0.98,VWS V13.01,2013-09-06 18:19:00,
2013-09-06 11:20:00,63.5,62.0,29.62,SSW,200,0.0,0.0,95,0.00,,---,0.98,VWS V13.01,2013-09-06 18:20:00,
2013-09-06 11:21:00,63.5,62.0,29.62,SSW,200,0.0,0.0,95,0.04,,---,1.02,VWS V13.01,2013-09-06 18:21:00,
2013-09-06 11:22:00,63.5,62.0,29.62,SSW,200,0.0,0.0,95,0.04,,---,1.02,VWS V13.01,2013-09-06 18:22:00,
2013-09-06 11:24:00,63.7,62.2,29.62,SSW,199,0.0,0.0,95,0.04,,---,1.02,VWS V13.01,2013-09-06 18:24:00,
2013-09-06 11:25:00,63.7,62.2,29.62,SSW,200,0.0,0.0,95,0.04,,---,1.02,VWS V13.01,2013-09-06 18:25:00,
2013-09-06 11:26:00,63.7,62.2,29.62,SSW,200,0.0,0.0,95,0.04,,---,1.02,VWS V13.01,2013-09-06 18:26:00,
2013-09-06 11:29:00,63.7,62.2,29.62,SSW,200,0.0,0.0,95,0.04,,---,1.02,VWS V13.01,2013-09-06 18:29:00,
2013-09-06 11:30:00,63.7,62.2,29.62,SSW,200,0.0,0.0,95,0.04,,---,1.02,VWS V13.01,2013-09-06 18:30:00,
2013-09-06 11:31:00,63.7,62.2,29.62,SSW,200,0.0,0.0,95,0.04,,---,1.02,VWS V13.01,2013-09-06 18:31:00,
2013-09-06 11:32:00,63.7,62.2,29.62,SSW,200,0.0,0.0,95,0.04,,---,1.02,VWS V13.01,2013-09-06 18:32:00,
2013-09-06 11:34:00,63.7,62.2,29.62,SSW,200,0.0,0.0,95,0.04,,---,1.02,VWS V13.01,2013-09-06 18:34:00,
2013-09-06 11:35:00,63.7,62.2,29.62,SSW,200,0.0,0.0,95,0.04,,---,1.02,VWS V13.01,2013-09-06 18:35:00,
2013-09-06 11:36:00,63.7,62.2,29.62,SSW,200,0.0,0.0,95,0.04,,---,1.02,VWS V13.01,2013-09-06 18:36:00,
2013-09-06 11:37:00,63.7,62.2,29.62,SSW,200,0.0,0.0,95,0.04,,---,1.02,VWS V13.01,2013-09-06 18:37:00,
2013-09-06 11:40:00,64.2,62.8,29.62,SSW,200,0.0,0.0,95,0.04,,---,1.02,VWS V13.01,2013-09-06 18:40:00,
2013-09-06 11:41:00,64.2,62.8,29.62,SSW,200,0.0,0.0,95,0.04,,---,1.02,VWS V13.01,2013-09-06 18:41:00,
2013-09-06 11:42:00,64.2,62.8,29.62,SSW,200,0.0,0.0,95,0.04,,---,1.02,VWS V13.01,2013-09-06 18:42:00,
2013-09-06 11:46:00,64.2,62.8,29.62,SSW,200,0.0,0.0,95,0.04,,---,1.02,VWS V13.01,2013-09-06 18:46:00,
2013-09-06 11:47:00,64.2,62.8,29.62,SSW,200,0.0,0.0,95,0.04,,---,1.02,VWS V13.01,2013-09-06 18:47:00,
2013-09-06 11:51:00,64.2,62.8,29.62,SSW,200,0.0,0.0,95,0.04,,---,1.02,VWS V13.01,2013-09-06 18:51:00,
2013-09-06 11:52:00,64.2,62.8,29.62,SSW,200,0.0,0.0,95,0.04,,---,1.02,VWS V13.01,2013-09-06 18:52:00,
2013-09-06 11:56:00,64.4,62.6,29.62,SSW,199,0.0,0.0,94,0.04,,---,1.02,VWS V13.01,2013-09-06 18:56:00,
2013-09-06 11:57:00,64.6,62.8,29.62,SSW,199,0.0,0.0,94,0.04,,---,1.02,VWS V13.01,2013-09-06 18:57:00,
2013-09-06 12:01:00,64.8,63.0,29.62,SSW,200,0.0,0.0,94,0.04,,---,1.02,VWS V13.01,2013-09-06 19:01:00,
2013-09-06 12:02:00,64.8,63.0,29.62,SSW,200,0.0,0.0,94,0.04,,---,1.02,VWS V13.01,2013-09-06 19:02:00,
2013-09-06 12:06:00,64.8,63.0,29.62,SSW,202,0.0,0.0,94,0.04,,---,1.02,VWS V13.01,2013-09-06 19:06:00,
2013-09-06 12:07:00,64.8,63.0,29.62,SSW,202,0.0,0.0,94,0.04,,---,1.02,VWS V13.01,2013-09-06 19:07:00,
2013-09-06 12:11:00,64.8,63.0,29.62,WSW,246,0.0,0.0,94,0.04,,---,1.02,VWS V13.01,2013-09-06 19:11:00,
2013-09-06 12:12:00,64.8,63.0,29.62,WSW,246,0.0,0.0,94,0.04,,---,1.02,VWS V13.01,2013-09-06 19:12:00,
2013-09-06 12:13:00,64.8,63.0,29.62,WSW,246,0.0,0.0,94,0.04,,---,1.02,VWS V13.01,2013-09-06 19:13:00,
2013-09-06 12:16:00,64.9,63.2,29.62,WSW,246,0.0,0.0,94,0.04,,---,1.02,VWS V13.01,2013-09-06 19:16:00,
2013-09-06 12:17:00,64.9,63.2,29.62,NE,40,2.7,2.7,94,0.04,,---,1.02,VWS V13.01,2013-09-06 19:17:00,
2013-09-06 12:18:00,64.9,63.2,29.62,NE,40,2.7,2.7,94,0.04,,---,1.02,VWS V13.01,2013-09-06 19:18:00,
2013-09-06 12:21:00,65.3,63.5,29.62,SSE,164,0.0,0.0,94,0.04,,---,1.02,VWS V13.01,2013-09-06 19:21:00,
2013-09-06 12:22:00,65.3,63.5,29.62,SSE,164,0.0,0.0,94,0.00,,---,1.02,VWS V13.01,2013-09-06 19:22:00,
2013-09-06 12:23:00,65.3,63.5,29.62,SSE,164,0.0,0.0,94,0.00,,---,1.02,VWS V13.01,2013-09-06 19:23:00,
2013-09-06 12:26:00,65.5,63.4,29.62,WNW,303,0.0,0.0,93,0.00,,---,1.02,VWS V13.01,2013-09-06 19:26:00,
2013-09-06 12:27:00,65.7,63.6,29.62,West,261,0.0,0.0,93,0.00,,---,1.02,VWS V13.01,2013-09-06 19:27:00,
2013-09-06 12:28:00,65.7,63.6,29.62,West,261,0.0,0.0,93,0.00,,---,1.02,VWS V13.01,2013-09-06 19:28:00,
2013-09-06 12:31:00,65.5,63.4,29.62,West,265,0.0,0.0,93,0.00,,---,1.02,VWS V13.01,2013-09-06 19:31:00,
2013-09-06 12:32:00,65.5,63.4,29.62,West,265,0.0,0.0,93,0.00,,---,1.02,VWS V13.01,2013-09-06 19:32:00,
2013-09-06 12:33:00,65.5,63.4,29.62,West,265,0.0,0.0,93,0.00,,---,1.02,VWS V13.01,2013-09-06 19:33:00,
2013-09-06 12:34:00,65.5,63.4,29.62,West,265,0.0,0.0,93,0.00,,---,1.02,VWS V13.01,2013-09-06 19:34:00,
2013-09-06 12:36:00,65.7,63.6,29.62,SW,233,2.7,2.7,93,0.00,,---,1.02,VWS V13.01,2013-09-06 19:36:00,
2013-09-06 12:37:00,65.7,63.6,29.62,West,266,2.7,2.7,93,0.00,,---,1.02,VWS V13.01,2013-09-06 19:37:00,
2013-09-06 12:38:00,65.7,63.6,29.62,West,266,2.7,2.7,93,0.00,,---,1.02,VWS V13.01,2013-09-06 19:38:00,
2013-09-06 12:39:00,65.7,63.6,29.62,SW,223,0.0,0.0,93,0.00,,---,1.02,VWS V13.01,2013-09-06 19:39:00,
2013-09-06 12:41:00,65.7,63.6,29.62,SW,223,0.0,0.0,93,0.00,,---,1.02,VWS V13.01,2013-09-06 19:41:00,
2013-09-06 12:42:00,65.7,63.3,29.62,WSW,239,0.0,0.0,92,0.00,,---,1.02,VWS V13.01,2013-09-06 19:42:00,
2013-09-06 12:43:00,65.7,63.3,29.62,WSW,239,0.0,0.0,92,0.00,,---,1.02,VWS V13.01,2013-09-06 19:43:00,
2013-09-06 12:44:00,65.7,63.3,29.62,WSW,239,0.0,0.0,92,0.00,,---,1.02,VWS V13.01,2013-09-06 19:44:00,
2013-09-06 12:45:00,65.7,63.3,29.62,WSW,239,0.0,0.0,92,0.00,,---,1.02,VWS V13.01,2013-09-06 19:45:00,
2013-09-06 12:46:00,65.8,63.5,29.62,WSW,239,0.0,0.0,92,0.00,,---,1.02,VWS V13.01,2013-09-06 19:46:00,
2013-09-06 12:48:00,65.8,63.5,29.62,SW,236,4.0,4.0,92,0.00,,---,1.02,VWS V13.01,2013-09-06 19:48:00,
2013-09-06 12:49:00,65.8,63.1,29.62,SW,236,4.0,4.0,91,0.00,,---,1.02,VWS V13.01,2013-09-06 19:49:00,
2013-09-06 12:51:00,66.0,63.3,29.62,SW,235,0.0,0.0,91,0.00,,---,1.02,VWS V13.01,2013-09-06 19:51:00,
2013-09-06 12:53:00,66.0,63.3,29.62,SW,235,0.0,0.0,91,0.00,,---,1.02,VWS V13.01,2013-09-06 19:53:00,
2013-09-06 12:54:00,66.0,63.3,29.62,SW,235,0.0,0.0,91,0.00,,---,1.02,VWS V13.01,2013-09-06 19:54:00,
2013-09-06 12:55:00,66.4,63.7,29.62,West,266,0.0,0.0,91,0.00,,---,1.02,VWS V13.01,2013-09-06 19:55:00,
2013-09-06 12:56:00,66.6,63.9,29.62,West,266,0.0,0.0,91,0.00,,---,1.02,VWS V13.01,2013-09-06 19:56:00,
2013-09-06 12:58:00,66.6,63.9,29.62,WSW,251,3.1,3.1,91,0.00,,---,1.02,VWS V13.01,2013-09-06 19:58:00,
2013-09-06 12:59:00,66.7,63.7,29.62,WSW,251,3.1,3.1,90,0.00,,---,1.02,VWS V13.01,2013-09-06 19:59:00,
2013-09-06 13:00:00,66.7,63.7,29.62,West,274,3.1,3.1,90,0.00,,---,1.02,VWS V13.01,2013-09-06 20:00:00,
2013-09-06 13:01:00,66.7,63.7,29.62,West,274,3.1,3.1,90,0.00,,---,1.02,VWS V13.01,2013-09-06 20:01:00,
2013-09-06 13:02:00,66.7,63.7,29.62,West,264,3.6,3.6,90,0.00,,---,1.02,VWS V13.01,2013-09-06 20:02:00,
2013-09-06 13:03:00,66.7,63.7,29.62,West,264,3.6,3.6,90,0.00,,---,1.02,VWS V13.01,2013-09-06 20:03:00,
2013-09-06 13:04:00,66.7,63.7,29.62,SSE,155,3.6,3.6,90,0.00,,---,1.02,VWS V13.01,2013-09-06 20:04:00,
2013-09-06 13:06:00,66.7,63.7,29.62,SSE,155,3.6,3.6,90,0.00,,---,1.02,VWS V13.01,2013-09-06 20:06:00,
2013-09-06 13:07:00,66.7,63.7,29.62,WSW,257,5.4,5.4,90,0.00,,---,1.02,VWS V13.01,2013-09-06 20:07:00,
2013-09-06 13:08:00,66.7,63.7,29.62,SSW,210,3.6,5.4,90,0.00,,---,1.02,VWS V13.01,2013-09-06 20:08:00,
2013-09-06 13:09:00,67.3,63.9,29.62,SSW,210,3.6,3.6,89,0.00,,---,1.02,VWS V13.01,2013-09-06 20:09:00,
2013-09-06 13:11:00,67.3,63.9,29.62,West,271,3.1,3.1,89,0.00,,---,1.02,VWS V13.01,2013-09-06 20:11:00,
2013-09-06 13:13:00,67.5,64.1,29.62,West,271,3.1,3.1,89,0.00,,---,1.02,VWS V13.01,2013-09-06 20:13:00,
2013-09-06 13:14:00,67.6,64.3,29.62,West,271,3.1,3.1,89,0.00,,---,1.02,VWS V13.01,2013-09-06 20:14:00,
2013-09-06 13:15:00,67.6,64.3,29.62,West,271,3.1,3.1,89,0.00,,---,1.02,VWS V13.01,2013-09-06 20:15:00,
2013-09-06 13:16:00,67.6,64.3,29.62,SSW,192,5.4,5.4,89,0.00,,---,1.02,VWS V13.01,2013-09-06 20:16:00,
2013-09-06 13:17:00,67.6,64.3,29.62,SW,218,2.7,2.7,89,0.00,,---,1.02,VWS V13.01,2013-09-06 20:17:00,
2013-09-06 13:18:00,67.6,64.3,29.62,SW,236,3.6,3.6,89,0.00,,---,1.02,VWS V13.01,2013-09-06 20:18:00,
2013-09-06 13:19:00,68.2,64.8,29.62,SW,236,3.6,3.6,89,0.00,,---,1.02,VWS V13.01,2013-09-06 20:19:00,
2013-09-06 13:20:00,68.2,64.8,29.62,SW,236,3.6,3.6,89,0.00,,---,1.02,VWS V13.01,2013-09-06 20:20:00,
2013-09-06 13:22:00,68.0,64.3,29.62,WSW,257,2.2,3.6,88,0.00,,---,1.02,VWS V13.01,2013-09-06 20:22:00,
2013-09-06 13:23:00,68.0,64.3,29.62,SW,218,2.7,2.7,88,0.00,,---,1.02,VWS V13.01,2013-09-06 20:23:00,
2013-09-06 13:24:00,68.2,64.2,29.62,SSW,213,3.6,3.6,87,0.00,,---,1.02,VWS V13.01,2013-09-06 20:24:00,
2013-09-06 13:25:00,68.2,64.2,29.62,SSW,213,3.6,3.6,87,0.00,,---,1.02,VWS V13.01,2013-09-06 20:25:00,
2013-09-06 13:27:00,68.2,64.2,29.62,SSW,213,3.6,3.6,87,0.00,,---,1.02,VWS V13.01,2013-09-06 20:27:00,
2013-09-06 13:28:00,68.2,64.2,29.62,SSW,213,3.6,3.6,87,0.00,,---,1.02,VWS V13.01,2013-09-06 20:28:00,
2013-09-06 13:29:00,68.2,64.2,29.62,SSW,213,3.6,3.6,87,0.00,,---,1.02,VWS V13.01,2013-09-06 20:29:00,
2013-09-06 13:30:00,67.8,63.5,29.62,SW,232,6.7,6.7,86,0.00,,---,1.02,VWS V13.01,2013-09-06 20:30:00,
2013-09-06 13:32:00,67.8,63.5,29.62,SW,214,3.1,3.1,86,0.00,,---,1.02,VWS V13.01,2013-09-06 20:32:00,
2013-09-06 13:33:00,67.8,63.5,29.62,WSW,255,2.7,3.1,86,0.00,,---,1.02,VWS V13.01,2013-09-06 20:33:00,
2013-09-06 13:34:00,67.8,63.5,29.62,SW,232,4.9,4.9,86,0.00,,---,1.02,VWS V13.01,2013-09-06 20:34:00,
2013-09-06 13:36:00,67.8,63.5,29.62,SSW,205,0.0,4.9,86,0.00,,---,1.02,VWS V13.01,2013-09-06 20:36:00,
2013-09-06 13:37:00,68.2,63.5,29.62,SSW,205,0.0,0.0,85,0.00,,---,1.02,VWS V13.01,2013-09-06 20:37:00,
2013-09-06 13:38:00,68.4,63.7,29.62,SW,227,3.6,3.6,85,0.00,,---,1.02,VWS V13.01,2013-09-06 20:38:00,
2013-09-06 13:39:00,68.4,63.7,29.62,SW,227,3.6,3.6,85,0.00,,---,1.02,VWS V13.01,2013-09-06 20:39:00,
2013-09-06 13:41:00,68.5,63.9,29.62,SW,227,3.6,3.6,85,0.00,,---,1.02,VWS V13.01,2013-09-06 20:41:00,
2013-09-06 13:42:00,68.5,63.9,29.62,West,259,3.1,3.6,85,0.00,,---,1.02,VWS V13.01,2013-09-06 20:42:00,
2013-09-06 13:43:00,68.5,63.9,29.62,West,259,3.1,3.1,85,0.00,,---,1.02,VWS V13.01,2013-09-06 20:43:00,
2013-09-06 13:44:00,68.5,63.9,29.62,WSW,241,6.3,6.3,85,0.00,,---,1.02,VWS V13.01,2013-09-06 20:44:00,
2013-09-06 13:47:00,69.6,64.9,29.62,WSW,256,4.0,4.0,85,0.00,,---,1.02,VWS V13.01,2013-09-06 20:47:00,
2013-09-06 13:48:00,69.6,64.9,29.62,WSW,240,4.9,4.9,85,0.00,,---,1.02,VWS V13.01,2013-09-06 20:48:00,
2013-09-06 13:49:00,70.0,64.9,29.62,WSW,240,4.9,4.9,84,0.00,,---,1.02,VWS V13.01,2013-09-06 20:49:00,
2013-09-06 13:53:00,70.2,64.8,29.62,WSW,243,2.7,5.4,83,0.00,,---,1.02,VWS V13.01,2013-09-06 20:53:00,
2013-09-06 13:54:00,70.2,64.8,29.62,WSW,243,2.7,2.7,83,0.00,,---,1.02,VWS V13.01,2013-09-06 20:54:00,
2013-09-06 13:55:00,69.8,63.7,29.62,WSW,243,2.7,2.7,81,0.00,,---,1.02,VWS V13.01,2013-09-06 20:55:00,
2013-09-06 13:58:00,70.0,63.9,29.62,WSW,241,2.2,2.2,81,0.00,,---,1.02,VWS V13.01,2013-09-06 20:58:00,
2013-09-06 14:00:00,70.0,63.9,29.62,West,277,2.7,2.7,81,0.00,,---,1.02,VWS V13.01,2013-09-06 21:00:00,
2013-09-06 14:03:00,70.5,64.1,29.62,West,275,5.4,5.4,80,0.00,,---,1.02,VWS V13.01,2013-09-06 21:03:00,
2013-09-06 14:04:00,70.5,64.1,29.62,West,275,5.4,5.4,80,0.00,,---,1.02,VWS V13.01,2013-09-06 21:04:00,
2013-09-06 14:05:00,70.5,64.1,29.62,West,275,5.4,5.4,80,0.00,,---,1.02,VWS V13.01,2013-09-06 21:05:00,
2013-09-06 14:07:00,70.5,63.3,29.62,WNW,288,2.7,2.7,78,0.00,,---,1.02,VWS V13.01,2013-09-06 21:07:00,
2013-09-06 14:08:00,70.5,63.3,29.62,SSW,195,0.0,2.7,78,0.00,,---,1.02,VWS V13.01,2013-09-06 21:08:00,
2013-09-06 14:09:00,70.5,63.3,29.62,SSW,195,0.0,0.0,78,0.00,,---,1.02,VWS V13.01,2013-09-06 21:09:00,
2013-09-06 14:10:00,70.5,63.3,29.62,WSW,244,3.6,3.6,78,0.00,,---,1.02,VWS V13.01,2013-09-06 21:10:00,
2013-09-06 14:12:00,70.5,63.3,29.62,WSW,244,3.6,3.6,78,0.00,,---,1.02,VWS V13.01,2013-09-06 21:12:00,
2013-09-06 14:13:00,71.2,64.4,29.62,WSW,243,6.3,6.3,79,0.00,,---,1.02,VWS V13.01,2013-09-06 21:13:00,
2013-09-06 14:14:00,71.2,64.4,29.62,WSW,243,6.3,6.3,79,0.00,,---,1.02,VWS V13.01,2013-09-06 21:14:00,
2013-09-06 14:15:00,71.2,64.4,29.62,WSW,243,6.3,6.3,79,0.00,,---,1.02,VWS V13.01,2013-09-06 21:15:00,
2013-09-06 14:17:00,71.4,64.9,29.62,WSW,243,6.3,6.3,80,0.00,,---,1.02,VWS V13.01,2013-09-06 21:17:00,
2013-09-06 14:18:00,71.4,64.9,29.62,WSW,243,6.3,6.3,80,0.00,,---,1.02,VWS V13.01,2013-09-06 21:18:00,
2013-09-06 14:19:00,71.4,64.9,29.62,WSW,257,4.9,6.3,80,0.00,,---,1.02,VWS V13.01,2013-09-06 21:19:00,
2013-09-06 14:20:00,71.4,64.9,29.62,WSW,257,4.9,4.9,80,0.00,,---,1.02,VWS V13.01,2013-09-06 21:20:00,
2013-09-06 14:22:00,70.0,62.8,29.62,WNW,287,3.6,3.6,78,0.00,,---,1.02,VWS V13.01,2013-09-06 21:22:00,
2013-09-06 14:23:00,70.0,62.8,29.62,WSW,257,2.7,3.6,78,0.00,,---,1.02,VWS V13.01,2013-09-06 21:23:00,
2013-09-06 14:24:00,70.0,62.8,29.62,WSW,257,2.7,3.6,78,0.00,,---,1.02,VWS V13.01,2013-09-06 21:24:00,
2013-09-06 14:25:00,69.6,62.8,29.62,WSW,257,2.7,2.7,79,0.00,,---,1.02,VWS V13.01,2013-09-06 21:25:00,
2013-09-06 14:27:00,69.6,63.2,29.62,WSW,258,7.6,7.6,80,0.00,,---,1.02,VWS V13.01,2013-09-06 21:27:00,
2013-09-06 14:28:00,69.4,63.0,29.62,West,276,6.3,6.3,80,0.00,,---,1.02,VWS V13.01,2013-09-06 21:28:00,
2013-09-06 14:29:00,69.4,63.0,29.62,West,276,6.3,6.3,80,0.00,,---,1.02,VWS V13.01,2013-09-06 21:29:00,
2013-09-06 14:30:00,69.4,63.0,29.62,West,276,6.3,6.3,80,0.00,,---,1.02,VWS V13.01,2013-09-06 21:30:00,
2013-09-06 14:31:00,69.4,63.0,29.62,West,276,6.3,6.3,80,0.00,,---,1.02,VWS V13.01,2013-09-06 21:31:00,
2013-09-06 14:33:00,68.9,62.5,29.62,West,276,6.3,6.3,80,0.00,,---,1.02,VWS V13.01,2013-09-06 21:33:00,
2013-09-06 14:34:00,68.5,62.1,29.62,WNW,293,4.0,6.3,80,0.00,,---,1.02,VWS V13.01,2013-09-06 21:34:00,
2013-09-06 14:35:00,68.5,62.1,29.62,WNW,293,4.0,4.0,80,0.00,,---,1.02,VWS V13.01,2013-09-06 21:35:00,
2013-09-06 14:36:00,68.5,62.1,29.62,WNW,293,4.0,4.0,80,0.00,,---,1.02,VWS V13.01,2013-09-06 21:36:00,
2013-09-06 14:38:00,68.5,62.1,29.62,WNW,286,5.4,5.4,80,0.00,,---,1.02,VWS V13.01,2013-09-06 21:38:00,
2013-09-06 14:39:00,68.5,62.1,29.62,West,278,2.7,2.7,80,0.00,,---,1.02,VWS V13.01,2013-09-06 21:39:00,
2013-09-06 14:40:00,68.5,62.5,29.62,West,278,2.7,2.7,81,0.00,,---,1.02,VWS V13.01,2013-09-06 21:40:00,
2013-09-06 14:41:00,68.5,62.5,29.62,West,278,2.7,2.7,81,0.00,,---,1.02,VWS V13.01,2013-09-06 21:41:00,
2013-09-06 14:42:00,68.5,62.5,29.62,WSW,249,4.0,4.0,81,0.00,,---,1.02,VWS V13.01,2013-09-06 21:42:00,
2013-09-06 14:43:00,68.5,62.5,29.62,WSW,249,4.0,4.0,81,0.00,,---,1.02,VWS V13.01,2013-09-06 21:43:00,
2013-09-06 14:44:00,68.5,62.5,29.62,WSW,249,4.0,4.0,81,0.00,,---,1.02,VWS V13.01,2013-09-06 21:44:00,
2013-09-06 14:45:00,68.5,62.5,29.62,WSW,249,4.0,4.0,81,0.00,,---,1.02,VWS V13.01,2013-09-06 21:45:00,
2013-09-06 14:46:00,68.5,62.5,29.62,WSW,249,4.0,4.0,81,0.00,,---,1.02,VWS V13.01,2013-09-06 21:46:00,
2013-09-06 14:47:00,68.5,62.5,29.62,SW,233,3.1,3.1,81,0.00,,---,1.02,VWS V13.01,2013-09-06 21:47:00,
2013-09-06 14:49:00,68.5,62.5,29.62,WSW,240,3.6,3.6,81,0.00,,---,1.02,VWS V13.01,2013-09-06 21:49:00,
2013-09-06 14:50:00,69.6,63.9,29.62,WSW,240,3.6,3.6,82,0.00,,---,1.02,VWS V13.01,2013-09-06 21:50:00,
2013-09-06 14:51:00,69.6,63.9,29.62,West,270,4.0,4.0,82,0.00,,---,1.02,VWS V13.01,2013-09-06 21:51:00,
2013-09-06 14:52:00,69.8,63.7,29.62,West,270,4.0,4.0,81,0.00,,---,1.02,VWS V13.01,2013-09-06 21:52:00,
2013-09-06 14:54:00,69.8,63.7,29.62,West,270,4.0,4.0,81,0.00,,---,1.02,VWS V13.01,2013-09-06 21:54:00,
2013-09-06 14:55:00,69.8,63.7,29.62,WSW,253,4.0,4.0,81,0.00,,---,1.02,VWS V13.01,2013-09-06 21:55:00,
2013-09-06 14:56:00,69.8,63.7,29.62,SW,228,5.8,5.8,81,0.00,,---,1.02,VWS V13.01,2013-09-06 21:56:00,
2013-09-06 14:57:00,69.8,63.7,29.62,SW,228,5.8,5.8,81,0.00,,---,1.02,VWS V13.01,2013-09-06 21:57:00,
2013-09-06 14:58:00,69.8,63.7,29.62,SW,228,5.8,5.8,81,0.00,,---,1.02,VWS V13.01,2013-09-06 21:58:00,
2013-09-06 15:00:00,69.8,63.7,29.62,SW,228,5.8,5.8,81,0.00,,---,1.02,VWS V13.01,2013-09-06 22:00:00,
2013-09-06 15:01:00,69.8,63.7,29.62,WSW,245,2.7,2.7,81,0.00,,---,1.02,VWS V13.01,2013-09-06 22:01:00,
2013-09-06 15:03:00,70.7,64.2,29.62,West,276,3.6,3.6,80,0.00,,---,1.02,VWS V13.01,2013-09-06 22:03:00,
2013-09-06 15:04:00,70.7,64.2,29.62,South,182,2.7,3.6,80,0.00,,---,1.02,VWS V13.01,2013-09-06 22:04:00,
2013-09-06 15:05:00,70.7,64.2,29.62,West,265,2.7,2.7,80,0.00,,---,1.02,VWS V13.01,2013-09-06 22:05:00,
2013-09-06 15:06:00,70.7,64.2,29.62,West,265,2.7,2.7,80,0.00,,---,1.02,VWS V13.01,2013-09-06 22:06:00,
2013-09-06 15:07:00,70.7,64.2,29.62,West,265,2.7,2.7,80,0.00,,---,1.02,VWS V13.01,2013-09-06 22:07:00,
2013-09-06 15:08:00,71.2,64.0,29.62,West,260,5.8,5.8,78,0.00,,---,1.02,VWS V13.01,2013-09-06 22:08:00,
2013-09-06 15:09:00,71.2,64.0,29.62,West,260,5.8,5.8,78,0.00,,---,1.02,VWS V13.01,2013-09-06 22:09:00,
2013-09-06 15:10:00,71.2,64.0,29.62,West,259,5.8,5.8,78,0.00,,---,1.02,VWS V13.01,2013-09-06 22:10:00,
2013-09-06 15:11:00,71.4,64.2,29.62,West,259,5.8,5.8,78,0.00,,---,1.02,VWS V13.01,2013-09-06 22:11:00,
2013-09-06 15:13:00,71.4,64.2,29.62,WSW,254,5.4,5.4,78,0.00,,---,1.02,VWS V13.01,2013-09-06 22:13:00,
2013-09-06 15:14:00,71.4,64.2,29.62,South,178,3.1,5.4,78,0.00,,---,1.02,VWS V13.01,2013-09-06 22:14:00,
2013-09-06 15:16:00,71.4,64.2,29.62,West,267,4.0,4.0,78,0.00,,---,1.02,VWS V13.01,2013-09-06 22:16:00,
2013-09-06 15:18:00,71.4,63.8,29.62,SSW,206,5.4,5.4,77,0.00,,---,1.02,VWS V13.01,2013-09-06 22:18:00,
2013-09-06 15:19:00,71.4,63.8,29.62,SSW,206,5.4,5.4,77,0.00,,---,1.02,VWS V13.01,2013-09-06 22:19:00,
2013-09-06 15:21:00,71.2,63.3,29.62,West,280,5.8,5.8,76,0.00,,---,1.02,VWS V13.01,2013-09-06 22:21:00,
2013-09-06 15:23:00,71.2,62.9,29.62,WSW,247,5.8,5.8,75,0.00,,---,1.02,VWS V13.01,2013-09-06 22:23:00,
2013-09-06 15:24:00,71.2,62.9,29.62,WSW,247,5.8,5.8,75,0.00,,---,1.02,VWS V13.01,2013-09-06 22:24:00,
2013-09-06 15:26:00,71.1,62.4,29.62,WSW,247,5.8,5.8,74,0.00,,---,1.02,VWS V13.01,2013-09-06 22:26:00,
2013-09-06 15:27:00,71.1,62.4,29.62,WSW,247,5.8,5.8,74,0.00,,---,1.02,VWS V13.01,2013-09-06 22:27:00,
2013-09-06 15:28:00,71.1,62.4,29.62,WSW,247,5.8,5.8,74,0.00,,---,1.02,VWS V13.01,2013-09-06 22:28:00,
2013-09-06 15:29:00,71.2,62.5,29.62,WSW,247,5.8,5.8,74,0.00,,---,1.02,VWS V13.01,2013-09-06 22:29:00,
2013-09-06 15:31:00,71.2,62.5,29.62,WSW,251,4.0,4.0,74,0.00,,---,1.02,VWS V13.01,2013-09-06 22:31:00,
2013-09-06 15:32:00,71.2,62.5,29.62,SSW,211,0.0,0.0,74,0.00,,---,1.02,VWS V13.01,2013-09-06 22:32:00,
2013-09-06 15:34:00,71.8,63.4,29.62,WNW,282,0.0,0.0,75,0.00,,---,1.02,VWS V13.01,2013-09-06 22:34:00,
2013-09-06 15:36:00,72.0,63.2,29.62,WNW,283,5.4,5.4,74,0.00,,---,1.02,VWS V13.01,2013-09-06 22:36:00,
2013-09-06 15:37:00,72.0,63.2,29.62,SW,232,5.4,5.4,74,0.00,,---,1.02,VWS V13.01,2013-09-06 22:37:00,
2013-09-06 15:39:00,72.3,63.6,29.62,SW,232,5.4,5.4,74,0.00,,---,1.02,VWS V13.01,2013-09-06 22:39:00,
2013-09-06 15:41:00,72.1,63.0,29.62,WNW,289,0.0,0.0,73,0.00,,---,1.02,VWS V13.01,2013-09-06 22:41:00,
2013-09-06 15:42:00,72.1,63.0,29.62,WNW,289,0.0,0.0,73,0.00,,---,1.02,VWS V13.01,2013-09-06 22:42:00,
2013-09-06 15:44:00,72.5,63.4,29.62,WSW,251,5.4,5.4,73,0.00,,---,1.02,VWS V13.01,2013-09-06 22:44:00,
2013-09-06 15:46:00,72.5,63.4,29.62,SSW,212,3.6,3.6,73,0.00,,---,1.02,VWS V13.01,2013-09-06 22:46:00,
2013-09-06 15:47:00,72.5,63.4,29.62,SSW,212,3.6,3.6,73,0.00,,---,1.02,VWS V13.01,2013-09-06 22:47:00,
2013-09-06 15:49:00,72.3,62.8,29.62,WSW,248,5.4,5.4,72,0.00,,---,1.02,VWS V13.01,2013-09-06 22:49:00,
2013-09-06 15:50:00,72.3,62.8,29.62,SSW,204,2.7,2.7,72,0.00,,---,1.02,VWS V13.01,2013-09-06 22:50:00,
2013-09-06 15:52:00,72.3,62.8,29.62,SW,225,2.7,2.7,72,0.00,,---,1.02,VWS V13.01,2013-09-06 22:52:00,
2013-09-06 15:54:00,73.0,63.1,29.62,SW,225,2.7,2.7,71,0.00,,---,1.02,VWS V13.01,2013-09-06 22:54:00,
2013-09-06 15:55:00,73.0,63.1,29.62,SW,225,2.7,2.7,71,0.00,,---,1.02,VWS V13.01,2013-09-06 22:55:00,
2013-09-06 15:57:00,72.5,62.6,29.62,WNW,283,5.8,5.8,71,0.00,,---,1.02,VWS V13.01,2013-09-06 22:57:00,
2013-09-06 15:58:00,72.5,62.6,29.62,WNW,283,5.8,5.8,71,0.00,,---,1.02,VWS V13.01,2013-09-06 22:58:00,
2013-09-06 15:59:00,72.5,62.6,29.62,WSW,256,8.3,8.3,71,0.00,,---,1.02,VWS V13.01,2013-09-06 22:59:00,
2013-09-06 16:01:00,71.8,61.1,29.62,West,272,5.8,8.3,69,0.00,,---,1.02,VWS V13.01,2013-09-06 23:01:00,
2013-09-06 16:02:00,71.8,61.1,29.62,West,272,5.8,8.3,69,0.00,,---,1.02,VWS V13.01,2013-09-06 23:02:00,
2013-09-06 16:04:00,71.4,61.1,29.62,West,272,5.8,5.8,70,0.00,,---,1.02,VWS V13.01,2013-09-06 23:04:00,
2013-09-06 16:06:00,71.4,61.5,29.62,WNW,285,7.6,7.6,71,0.00,,---,1.02,VWS V13.01,2013-09-06 23:06:00,
2013-09-06 16:07:00,71.4,61.5,29.62,WNW,285,7.6,7.6,71,0.00,,---,1.02,VWS V13.01,2013-09-06 23:07:00,
2013-09-06 16:09:00,71.4,61.5,29.62,WNW,283,5.4,5.4,71,0.00,,---,1.02,VWS V13.01,2013-09-06 23:09:00,
2013-09-06 16:12:00,71.2,61.8,29.62,SW,231,3.1,3.1,72,0.00,,---,1.02,VWS V13.01,2013-09-06 23:12:00,
2013-09-06 16:13:00,71.2,61.8,29.62,WSW,250,5.8,5.8,72,0.00,,---,1.02,VWS V13.01,2013-09-06 23:13:00,
2013-09-06 16:14:00,71.4,61.9,29.62,West,261,4.0,5.8,72,0.00,,---,1.02,VWS V13.01,2013-09-06 23:14:00,
2013-09-06 16:17:00,71.6,62.1,29.62,West,261,4.0,4.0,72,0.00,,---,1.02,VWS V13.01,2013-09-06 23:17:00,
2013-09-06 16:18:00,71.6,62.1,29.62,West,278,5.8,5.8,72,0.00,,---,1.02,VWS V13.01,2013-09-06 23:18:00,
2013-09-06 16:19:00,71.6,62.1,29.62,West,267,3.6,5.8,72,0.00,,---,1.02,VWS V13.01,2013-09-06 23:19:00,
2013-09-06 16:22:00,71.6,62.1,29.62,WSW,257,4.9,4.9,72,0.00,,---,1.02,VWS V13.01,2013-09-06 23:22:00,
2013-09-06 16:23:00,71.6,62.1,29.62,SW,226,3.6,4.9,72,0.00,,---,1.02,VWS V13.01,2013-09-06 23:23:00,
2013-09-06 16:24:00,71.8,62.7,29.62,SW,226,3.6,3.6,73,0.00,,---,1.02,VWS V13.01,2013-09-06 23:24:00,
2013-09-06 16:25:00,71.8,62.7,29.62,SW,226,3.6,3.6,73,0.00,,---,1.02,VWS V13.01,2013-09-06 23:25:00,
2013-09-06 16:27:00,71.8,62.7,29.62,WSW,252,2.7,2.7,73,0.00,,---,1.02,VWS V13.01,2013-09-06 23:27:00,
2013-09-06 16:28:00,71.8,62.7,29.62,SW,223,3.6,3.6,73,0.00,,---,1.02,VWS V13.01,2013-09-06 23:28:00,
2013-09-06 16:29:00,71.8,62.7,29.62,SW,223,3.6,3.6,73,0.00,,---,1.02,VWS V13.01,2013-09-06 23:29:00,
2013-09-06 16:30:00,71.8,61.9,29.62,SW,223,3.6,3.6,71,0.00,,---,1.02,VWS V13.01,2013-09-06 23:30:00,
2013-09-06 16:32:00,71.8,61.9,29.62,SW,223,3.6,3.6,71,0.00,,---,1.02,VWS V13.01,2013-09-06 23:32:00,
2013-09-06 16:33:00,71.4,61.5,29.62,WSW,240,2.7,3.6,71,0.00,,---,1.02,VWS V13.01,2013-09-06 23:33:00,
2013-09-06 16:34:00,71.4,61.5,29.62,WSW,240,2.7,2.7,71,0.00,,---,1.02,VWS V13.01,2013-09-06 23:34:00,
2013-09-06 16:36:00,71.4,61.5,29.62,West,275,6.7,6.7,71,0.00,,---,1.02,VWS V13.01,2013-09-06 23:36:00,
2013-09-06 16:37:00,71.4,61.5,29.62,WNW,302,8.7,8.7,71,0.00,,---,1.02,VWS V13.01,2013-09-06 23:37:00,
2013-09-06 16:38:00,71.4,61.5,29.62,WNW,302,8.7,8.7,71,0.00,,---,1.02,VWS V13.01,2013-09-06 23:38:00,
2013-09-06 16:39:00,71.1,61.6,29.65,WNW,302,8.7,8.7,72,0.00,,---,1.02,VWS V13.01,2013-09-06 23:39:00,
2013-09-06 16:41:00,71.1,61.6,29.65,WSW,241,0.0,0.0,72,0.00,,---,1.02,VWS V13.01,2013-09-06 23:41:00,
2013-09-06 16:42:00,71.1,61.6,29.65,WSW,241,0.0,0.0,72,0.00,,---,1.02,VWS V13.01,2013-09-06 23:42:00,
2013-09-06 16:43:00,71.1,61.6,29.65,WSW,241,0.0,0.0,72,0.00,,---,1.02,VWS V13.01,2013-09-06 23:43:00,
2013-09-06 16:44:00,71.1,61.6,29.65,WSW,241,0.0,0.0,72,0.00,,---,1.02,VWS V13.01,2013-09-06 23:44:00,
2013-09-06 16:45:00,71.1,61.6,29.65,WSW,241,0.0,0.0,72,0.00,,---,1.02,VWS V13.01,2013-09-06 23:45:00,
2013-09-06 16:47:00,71.1,61.6,29.65,WSW,241,0.0,0.0,72,0.00,,---,1.02,VWS V13.01,2013-09-06 23:47:00,
2013-09-06 16:48:00,71.2,62.2,29.65,ESE,113,2.2,2.2,73,0.00,,---,1.02,VWS V13.01,2013-09-06 23:48:00,
2013-09-06 16:49:00,71.2,62.2,29.65,ESE,113,2.2,2.2,73,0.00,,---,1.02,VWS V13.01,2013-09-06 23:49:00,
2013-09-06 16:50:00,71.2,62.2,29.65,WSW,252,4.0,4.0,73,0.00,,---,1.02,VWS V13.01,2013-09-06 23:50:00,
2013-09-06 16:52:00,71.4,62.3,29.65,SW,223,6.3,6.3,73,0.00,,---,1.02,VWS V13.01,2013-09-06 23:52:00,
2013-09-06 16:53:00,71.2,62.2,29.65,SW,219,4.0,4.0,73,0.00,,---,1.02,VWS V13.01,2013-09-06 23:53:00,
2013-09-06 16:54:00,71.2,62.2,29.65,WNW,289,2.7,6.3,73,0.00,,---,1.02,VWS V13.01,2013-09-06 23:54:00,
2013-09-06 16:55:00,71.2,62.2,29.65,WNW,289,2.7,2.7,73,0.00,,---,1.02,VWS V13.01,2013-09-06 23:55:00,
2013-09-06 16:58:00,71.2,62.2,29.65,WNW,289,2.7,2.7,73,0.00,,---,1.02,VWS V13.01,2013-09-06 23:58:00,
2013-09-06 16:59:00,71.2,62.2,29.65,WNW,289,2.7,2.7,73,0.00,,---,1.02,VWS V13.01,2013-09-06 23:59:00,
2013-09-06 17:00:00,71.1,61.6,29.65,WNW,289,2.7,2.7,72,0.00,,---,1.02,VWS V13.01,2013-09-07 00:00:00,
2013-09-06 17:03:00,71.1,62.0,29.65,NW,305,0.0,2.7,73,0.00,,---,1.02,VWS V13.01,2013-09-07 00:03:00,
2013-09-06 17:04:00,70.7,61.2,29.65,NW,305,0.0,0.0,72,0.00,,---,1.02,VWS V13.01,2013-09-07 00:04:00,
2013-09-06 17:05:00,70.7,61.2,29.65,NW,305,0.0,0.0,72,0.00,,---,1.02,VWS V13.01,2013-09-07 00:05:00,
2013-09-06 17:06:00,70.7,61.2,29.65,NW,305,0.0,0.0,72,0.00,,---,1.02,VWS V13.01,2013-09-07 00:06:00,
2013-09-06 17:08:00,70.7,61.2,29.65,WNW,283,5.4,5.4,72,0.00,,---,1.02,VWS V13.01,2013-09-07 00:08:00,
2013-09-06 17:10:00,70.7,61.2,29.65,WNW,283,5.4,5.4,72,0.00,,---,1.02,VWS V13.01,2013-09-07 00:10:00,
2013-09-06 17:11:00,70.7,61.2,29.65,WNW,283,5.4,5.4,72,0.00,,---,1.02,VWS V13.01,2013-09-07 00:11:00,
2013-09-06 17:13:00,70.7,61.2,29.65,West,278,4.0,4.0,72,0.00,,---,1.02,VWS V13.01,2013-09-07 00:13:00,
2013-09-06 17:14:00,70.7,61.2,29.65,West,278,4.0,4.0,72,0.00,,---,1.02,VWS V13.01,2013-09-07 00:14:00,
2013-09-06 17:15:00,70.7,61.6,29.65,West,278,4.0,4.0,73,0.00,,---,1.02,VWS V13.01,2013-09-07 00:15:00,
2013-09-06 17:16:00,70.7,61.6,29.65,WNW,299,2.7,2.7,73,0.00,,---,1.02,VWS V13.01,2013-09-07 00:16:00,
2013-09-06 17:18:00,70.5,61.1,29.65,West,275,4.9,4.9,72,0.00,,---,1.02,VWS V13.01,2013-09-07 00:18:00,
2013-09-06 17:19:00,70.5,61.1,29.65,West,275,4.9,4.9,72,0.00,,---,1.02,VWS V13.01,2013-09-07 00:19:00,
2013-09-06 17:20:00,70.5,61.1,29.65,West,275,4.9,4.9,72,0.00,,---,1.02,VWS V13.01,2013-09-07 00:20:00,
2013-09-06 17:21:00,70.3,61.3,29.65,West,277,4.0,4.0,73,0.00,,---,1.02,VWS V13.01,2013-09-07 00:21:00,
2013-09-06 17:23:00,70.3,61.3,29.65,SSW,198,3.6,3.6,73,0.00,,---,1.02,VWS V13.01,2013-09-07 00:23:00,
2013-09-06 17:24:00,70.3,61.3,29.65,SSW,198,3.6,3.6,73,0.00,,---,1.02,VWS V13.01,2013-09-07 00:24:00,
2013-09-06 17:25:00,70.3,61.3,29.65,SSW,198,3.6,3.6,73,0.00,,---,1.02,VWS V13.01,2013-09-07 00:25:00,
2013-09-06 17:26:00,70.3,61.3,29.65,SSE,160,0.0,0.0,73,0.00,,---,1.02,VWS V13.01,2013-09-07 00:26:00,
2013-09-06 17:27:00,70.3,61.3,29.65,SSE,160,0.0,0.0,73,0.00,,---,1.02,VWS V13.01,2013-09-07 00:27:00,
2013-09-06 17:28:00,70.3,61.3,29.65,SSE,160,0.0,0.0,73,0.00,,---,1.02,VWS V13.01,2013-09-07 00:28:00,
2013-09-06 17:29:00,70.3,61.3,29.65,SSE,160,0.0,0.0,73,0.00,,---,1.02,VWS V13.01,2013-09-07 00:29:00,
2013-09-06 17:30:00,70.3,61.3,29.65,SW,226,4.9,4.9,73,0.00,,---,1.02,VWS V13.01,2013-09-07 00:30:00,
2013-09-06 17:32:00,70.3,61.7,29.65,SW,226,4.9,4.9,74,0.00,,---,1.02,VWS V13.01,2013-09-07 00:32:00,
2013-09-06 17:33:00,70.3,61.7,29.65,SW,226,4.9,4.9,74,0.00,,---,1.02,VWS V13.01,2013-09-07 00:33:00,
2013-09-06 17:34:00,70.3,61.7,29.65,SW,226,4.9,4.9,74,0.00,,---,1.02,VWS V13.01,2013-09-07 00:34:00,
2013-09-06 17:35:00,70.2,61.5,29.65,West,280,3.1,3.1,74,0.00,,---,1.02,VWS V13.01,2013-09-07 00:35:00,
2013-09-06 17:37:00,70.2,61.1,29.65,West,275,2.2,2.2,73,0.00,,---,1.02,VWS V13.01,2013-09-07 00:37:00,
2013-09-06 17:38:00,70.2,61.1,29.65,West,275,2.2,2.2,73,0.00,,---,1.02,VWS V13.01,2013-09-07 00:38:00,
2013-09-06 17:39:00,70.2,61.1,29.65,WNW,283,3.6,3.6,73,0.00,,---,1.02,VWS V13.01,2013-09-07 00:39:00,
2013-09-06 17:40:00,70.2,61.1,29.65,WNW,283,3.6,3.6,73,0.00,,---,1.02,VWS V13.01,2013-09-07 00:40:00,
2013-09-06 17:42:00,70.2,61.1,29.65,WNW,283,3.6,3.6,73,0.00,,---,1.02,VWS V13.01,2013-09-07 00:42:00,
2013-09-06 17:43:00,70.2,61.1,29.65,SSW,206,5.4,5.4,73,0.00,,---,1.02,VWS V13.01,2013-09-07 00:43:00,
2013-09-06 17:44:00,70.2,61.1,29.65,SSW,206,5.4,5.4,73,0.00,,---,1.02,VWS V13.01,2013-09-07 00:44:00,
2013-09-06 17:45:00,70.2,61.1,29.65,SSW,206,5.4,5.4,73,0.00,,---,1.02,VWS V13.01,2013-09-07 00:45:00,
2013-09-06 17:47:00,70.2,61.5,29.65,SW,214,4.0,4.0,74,0.00,,---,1.02,VWS V13.01,2013-09-07 00:47:00,
2013-09-06 17:48:00,70.2,61.5,29.65,SSE,159,5.4,5.4,74,0.00,,---,1.02,VWS V13.01,2013-09-07 00:48:00,
2013-09-06 17:49:00,70.2,61.5,29.65,SSE,159,5.4,5.4,74,0.00,,---,1.02,VWS V13.01,2013-09-07 00:49:00,
2013-09-06 17:50:00,70.2,61.5,29.65,SSE,159,5.4,5.4,74,0.00,,---,1.02,VWS V13.01,2013-09-07 00:50:00,
2013-09-06 17:53:00,70.2,61.5,29.65,SE,140,4.0,4.0,74,0.00,,---,1.02,VWS V13.01,2013-09-07 00:53:00,
2013-09-06 17:54:00,70.2,61.5,29.65,SE,140,4.0,4.0,74,0.00,,---,1.02,VWS V13.01,2013-09-07 00:54:00,
2013-09-06 17:55:00,69.8,61.2,29.65,SE,140,4.0,4.0,74,0.00,,---,1.02,VWS V13.01,2013-09-07 00:55:00,
2013-09-06 17:58:00,69.8,61.2,29.65,WNW,283,3.6,3.6,74,0.00,,---,1.02,VWS V13.01,2013-09-07 00:58:00,
2013-09-06 18:00:00,69.8,61.2,29.65,SW,221,0.0,0.0,74,0.00,,---,1.02,VWS V13.01,2013-09-07 01:00:00,
2013-09-06 18:03:00,69.6,61.3,29.65,SW,235,0.0,0.0,75,0.00,,---,1.02,VWS V13.01,2013-09-07 01:03:00,
2013-09-06 18:05:00,69.6,61.7,29.65,WSW,237,2.7,2.7,76,0.00,,---,1.02,VWS V13.01,2013-09-07 01:05:00,
2013-09-06 18:08:00,69.6,61.7,29.65,WNW,298,2.7,2.7,76,0.00,,---,1.02,VWS V13.01,2013-09-07 01:08:00,
2013-09-06 18:09:00,69.6,61.7,29.65,WNW,298,2.7,2.7,76,0.00,,---,1.02,VWS V13.01,2013-09-07 01:09:00,
2013-09-06 18:10:00,69.3,61.4,29.65,SW,234,5.8,5.8,76,0.00,,---,1.02,VWS V13.01,2013-09-07 01:10:00,
2013-09-06 18:12:00,69.3,61.4,29.65,West,271,2.7,2.7,76,0.00,,---,1.02,VWS V13.01,2013-09-07 01:12:00,
2013-09-06 18:13:00,69.1,61.2,29.65,West,271,2.7,2.7,76,0.00,,---,1.02,VWS V13.01,2013-09-07 01:13:00,
2013-09-06 18:14:00,69.1,61.2,29.65,West,271,2.7,2.7,76,0.00,,---,1.02,VWS V13.01,2013-09-07 01:14:00,
2013-09-06 18:15:00,69.1,61.2,29.65,WNW,283,0.0,4.9,76,0.00,,---,1.02,VWS V13.01,2013-09-07 01:15:00,
2013-09-06 18:17:00,69.1,61.2,29.65,WNW,283,0.0,0.0,76,0.00,,---,1.02,VWS V13.01,2013-09-07 01:17:00,
2013-09-06 18:18:00,69.1,61.2,29.65,SW,216,2.2,2.2,76,0.00,,---,1.02,VWS V13.01,2013-09-07 01:18:00,
2013-09-06 18:19:00,68.9,61.4,29.65,SW,216,2.2,2.2,77,0.00,,---,1.02,VWS V13.01,2013-09-07 01:19:00,
2013-09-06 18:20:00,68.9,61.4,29.65,SW,216,2.2,2.2,77,0.00,,---,1.02,VWS V13.01,2013-09-07 01:20:00,
2013-09-06 18:22:00,68.9,61.4,29.65,SW,216,2.2,2.2,77,0.00,,---,1.02,VWS V13.01,2013-09-07 01:22:00,
2013-09-06 18:24:00,68.7,61.2,29.65,West,269,0.0,0.0,77,0.00,,---,1.02,VWS V13.01,2013-09-07 01:24:00,
2013-09-06 18:25:00,68.7,61.2,29.65,West,269,0.0,0.0,77,0.00,,---,1.02,VWS V13.01,2013-09-07 01:25:00,
2013-09-06 18:27:00,68.7,61.6,29.65,SSW,194,2.7,2.7,78,0.00,,---,1.02,VWS V13.01,2013-09-07 01:27:00,
2013-09-06 18:29:00,68.7,61.6,29.65,SSW,194,2.7,2.7,78,0.00,,---,1.02,VWS V13.01,2013-09-07 01:29:00,
2013-09-06 18:30:00,68.7,61.6,29.65,WNW,291,3.6,3.6,78,0.00,,---,1.02,VWS V13.01,2013-09-07 01:30:00,
2013-09-06 18:33:00,68.5,61.4,29.65,NW,321,4.0,4.0,78,0.00,,---,1.02,VWS V13.01,2013-09-07 01:33:00,
2013-09-06 18:34:00,68.5,61.4,29.65,West,263,3.1,3.1,78,0.00,,---,1.02,VWS V13.01,2013-09-07 01:34:00,
2013-09-06 18:35:00,68.5,61.4,29.65,West,263,3.1,3.1,78,0.00,,---,1.02,VWS V13.01,2013-09-07 01:35:00,
2013-09-06 18:36:00,68.5,61.4,29.65,West,263,3.1,3.1,78,0.00,,---,1.02,VWS V13.01,2013-09-07 01:36:00,
2013-09-06 18:38:00,68.5,61.4,29.65,West,261,2.7,2.7,78,0.00,,---,1.02,VWS V13.01,2013-09-07 01:38:00,
2013-09-06 18:39:00,68.5,61.4,29.65,SSW,196,4.0,4.0,78,0.00,,---,1.02,VWS V13.01,2013-09-07 01:39:00,
2013-09-06 18:40:00,68.4,61.2,29.65,SSW,196,4.0,4.0,78,0.00,,---,1.02,VWS V13.01,2013-09-07 01:40:00,
2013-09-06 18:41:00,68.4,61.2,29.65,South,172,3.6,3.6,78,0.00,,---,1.02,VWS V13.01,2013-09-07 01:41:00,
2013-09-06 18:44:00,68.4,61.2,29.65,SSW,207,3.6,3.6,78,0.00,,---,1.02,VWS V13.01,2013-09-07 01:44:00,
2013-09-06 18:46:00,68.4,61.6,29.65,SSW,207,3.6,3.6,79,0.00,,---,1.02,VWS V13.01,2013-09-07 01:46:00,
2013-09-06 18:49:00,68.2,61.4,29.65,SSW,199,2.7,2.7,79,0.00,,---,1.02,VWS V13.01,2013-09-07 01:49:00,
2013-09-06 18:50:00,68.2,61.4,29.65,SSW,199,2.7,2.7,79,0.00,,---,1.02,VWS V13.01,2013-09-07 01:50:00,
2013-09-06 18:51:00,68.2,61.4,29.65,WSW,244,0.0,2.7,79,0.00,,---,1.02,VWS V13.01,2013-09-07 01:51:00,
2013-09-06 18:54:00,68.2,61.4,29.65,West,268,2.7,4.0,79,0.00,,---,1.02,VWS V13.01,2013-09-07 01:54:00,
2013-09-06 18:55:00,68.2,61.4,29.65,West,268,2.7,4.0,79,0.00,,---,1.02,VWS V13.01,2013-09-07 01:55:00,
2013-09-06 18:56:00,67.8,61.1,29.65,West,268,2.7,2.7,79,0.00,,---,1.02,VWS V13.01,2013-09-07 01:56:00,
2013-09-06 19:00:00,67.6,61.3,29.65,West,268,2.7,2.7,80,0.00,,---,1.02,VWS V13.01,2013-09-07 02:00:00,
2013-09-06 19:01:00,67.6,61.3,29.65,NW,304,2.7,4.0,80,0.00,,---,1.02,VWS V13.01,2013-09-07 02:01:00,
2013-09-06 19:02:00,67.5,61.1,29.65,West,278,5.4,5.4,80,0.00,,---,1.02,VWS V13.01,2013-09-07 02:02:00,
2013-09-06 19:05:00,67.3,60.9,29.65,WNW,295,2.7,2.7,80,0.00,,---,1.02,VWS V13.01,2013-09-07 02:05:00,
2013-09-06 19:06:00,67.3,60.9,29.65,WNW,295,2.7,2.7,80,0.00,,---,1.02,VWS V13.01,2013-09-07 02:06:00,
2013-09-06 19:07:00,67.1,60.7,29.65,WNW,289,6.3,6.3,80,0.00,,---,1.02,VWS V13.01,2013-09-07 02:07:00,
2013-09-06 19:10:00,67.1,60.7,29.65,WSW,254,0.0,6.3,80,0.00,,---,1.02,VWS V13.01,2013-09-07 02:10:00,
2013-09-06 19:11:00,67.1,60.7,29.65,WSW,254,0.0,6.3,80,0.00,,---,1.02,VWS V13.01,2013-09-07 02:11:00,
2013-09-06 19:12:00,67.1,60.7,29.65,WSW,254,0.0,0.0,80,0.00,,---,1.02,VWS V13.01,2013-09-07 02:12:00,
2013-09-06 19:13:00,66.9,60.9,29.65,WSW,254,0.0,0.0,81,0.00,,---,1.02,VWS V13.01,2013-09-07 02:13:00,
2013-09-06 19:15:00,66.7,60.7,29.65,NW,310,5.4,5.4,81,0.00,,---,1.02,VWS V13.01,2013-09-07 02:15:00,
2013-09-06 19:16:00,66.7,60.7,29.65,West,279,4.0,5.4,81,0.00,,---,1.02,VWS V13.01,2013-09-07 02:16:00,
2013-09-06 19:18:00,66.7,60.7,29.65,West,279,4.0,4.0,81,0.00,,---,1.02,VWS V13.01,2013-09-07 02:18:00,
2013-09-06 19:20:00,66.7,60.7,29.65,West,279,3.1,3.1,81,0.00,,---,1.02,VWS V13.01,2013-09-07 02:20:00,
2013-09-06 19:21:00,66.7,60.7,29.65,West,281,3.6,3.6,81,0.00,,---,1.02,VWS V13.01,2013-09-07 02:21:00,
2013-09-06 19:23:00,66.6,60.6,29.65,West,281,3.6,3.6,81,0.00,,---,1.02,VWS V13.01,2013-09-07 02:23:00,
2013-09-06 19:24:00,66.6,60.6,29.65,West,281,3.6,3.6,81,0.00,,---,1.02,VWS V13.01,2013-09-07 02:24:00,
2013-09-06 19:25:00,66.6,60.6,29.65,SSW,200,3.1,3.1,81,0.00,,---,1.02,VWS V13.01,2013-09-07 02:25:00,
2013-09-06 19:26:00,66.4,60.4,29.65,SSW,200,3.1,3.1,81,0.00,,---,1.02,VWS V13.01,2013-09-07 02:26:00,
2013-09-06 19:27:00,66.4,60.4,29.65,SSW,200,3.1,3.1,81,0.00,,---,1.02,VWS V13.01,2013-09-07 02:27:00,
2013-09-06 19:28:00,66.4,60.4,29.65,West,275,3.1,3.1,81,0.00,,---,1.02,VWS V13.01,2013-09-07 02:28:00,
2013-09-06 19:29:00,66.4,60.4,29.65,West,275,3.1,3.1,81,0.00,,---,1.02,VWS V13.01,2013-09-07 02:29:00,
2013-09-06 19:31:00,66.4,60.4,29.65,WSW,252,3.6,3.6,81,0.00,,---,1.02,VWS V13.01,2013-09-07 02:31:00,
2013-09-06 19:32:00,66.2,60.5,29.65,WSW,252,3.6,3.6,82,0.00,,---,1.02,VWS V13.01,2013-09-07 02:32:00,
2013-09-06 19:34:00,66.2,60.5,29.65,SW,219,2.7,2.7,82,0.00,,---,1.02,VWS V13.01,2013-09-07 02:34:00,
2013-09-06 19:36:00,66.2,60.5,29.65,SW,219,0.0,0.0,82,0.00,,---,1.02,VWS V13.01,2013-09-07 02:36:00,
2013-09-06 19:37:00,66.2,60.5,29.65,SW,219,0.0,0.0,82,0.00,,---,1.02,VWS V13.01,2013-09-07 02:37:00,
2013-09-06 19:40:00,66.2,60.5,29.65,SSW,206,0.0,0.0,82,0.00,,---,1.02,VWS V13.01,2013-09-07 02:40:00,
2013-09-06 19:41:00,66.0,60.4,29.65,SSW,206,0.0,0.0,82,0.00,,---,1.02,VWS V13.01,2013-09-07 02:41:00,
2013-09-06 19:42:00,66.0,60.4,29.65,SSW,206,0.0,0.0,82,0.00,,---,1.02,VWS V13.01,2013-09-07 02:42:00,
2013-09-06 19:45:00,66.0,60.4,29.65,SSW,213,2.7,2.7,82,0.00,,---,1.02,VWS V13.01,2013-09-07 02:45:00,
2013-09-06 19:46:00,66.0,60.4,29.65,SW,220,0.0,2.7,82,0.00,,---,1.02,VWS V13.01,2013-09-07 02:46:00,
2013-09-06 19:47:00,66.0,60.4,29.65,SW,220,0.0,2.7,82,0.00,,---,1.02,VWS V13.01,2013-09-07 02:47:00,
2013-09-06 19:50:00,65.8,60.2,29.65,SW,232,0.0,0.0,82,0.00,,---,1.02,VWS V13.01,2013-09-07 02:50:00,
2013-09-06 19:51:00,65.8,60.2,29.65,SW,232,0.0,0.0,82,0.00,,---,1.02,VWS V13.01,2013-09-07 02:51:00,
2013-09-06 19:52:00,65.8,60.2,29.65,SW,232,0.0,0.0,82,0.00,,---,1.02,VWS V13.01,2013-09-07 02:52:00,
2013-09-06 19:53:00,65.7,60.0,29.65,SW,232,0.0,0.0,82,0.00,,---,1.02,VWS V13.01,2013-09-07 02:53:00,
2013-09-06 19:55:00,65.8,60.2,29.65,West,264,0.0,0.0,82,0.00,,---,1.02,VWS V13.01,2013-09-07 02:55:00,
2013-09-06 19:56:00,65.8,60.2,29.65,West,264,0.0,0.0,82,0.00,,---,1.02,VWS V13.01,2013-09-07 02:56:00,
2013-09-06 19:57:00,65.8,60.2,29.65,West,264,0.0,0.0,82,0.00,,---,1.02,VWS V13.01,2013-09-07 02:57:00,
2013-09-06 19:58:00,65.8,60.2,29.65,West,264,0.0,0.0,82,0.00,,---,1.02,VWS V13.01,2013-09-07 02:58:00,
2013-09-06 20:01:00,65.5,60.2,29.65,SW,236,0.0,0.0,83,0.00,,---,1.02,VWS V13.01,2013-09-07 03:01:00,
2013-09-06 20:02:00,65.5,60.2,29.65,SW,236,0.0,0.0,83,0.00,,---,1.02,VWS V13.01,2013-09-07 03:02:00,
2013-09-06 20:03:00,65.5,60.2,29.65,SW,236,0.0,0.0,83,0.00,,---,1.02,VWS V13.01,2013-09-07 03:03:00,
2013-09-06 20:06:00,65.5,60.2,29.65,WNW,291,0.0,0.0,83,0.00,,---,1.02,VWS V13.01,2013-09-07 03:06:00,
2013-09-06 20:07:00,65.5,60.2,29.65,WNW,291,0.0,0.0,83,0.00,,---,1.02,VWS V13.01,2013-09-07 03:07:00,
2013-09-06 20:08:00,65.1,59.8,29.65,West,262,0.0,0.0,83,0.00,,---,1.02,VWS V13.01,2013-09-07 03:08:00,
2013-09-06 20:11:00,65.1,59.8,29.65,West,259,0.0,2.7,83,0.00,,---,1.02,VWS V13.01,2013-09-07 03:11:00,
2013-09-06 20:12:00,65.1,59.8,29.65,West,259,0.0,0.0,83,0.00,,---,1.02,VWS V13.01,2013-09-07 03:12:00,
2013-09-06 20:13:00,65.1,59.8,29.65,West,259,0.0,0.0,83,0.00,,---,1.02,VWS V13.01,2013-09-07 03:13:00,
2013-09-06 20:14:00,65.1,59.8,29.65,West,259,0.0,0.0,83,0.00,,---,1.02,VWS V13.01,2013-09-07 03:14:00,
2013-09-06 20:16:00,65.1,59.8,29.65,West,259,0.0,0.0,83,0.00,,---,1.02,VWS V13.01,2013-09-07 03:16:00,
2013-09-06 20:17:00,64.9,59.7,29.68,West,259,0.0,0.0,83,0.00,,---,1.02,VWS V13.01,2013-09-07 03:17:00,
2013-09-06 20:18:00,64.9,59.7,29.68,West,259,0.0,0.0,83,0.00,,---,1.02,VWS V13.01,2013-09-07 03:18:00,
2013-09-06 20:19:00,64.9,59.7,29.68,West,259,0.0,0.0,83,0.00,,---,1.02,VWS V13.01,2013-09-07 03:19:00,
2013-09-06 20:21:00,64.9,59.7,29.68,West,259,0.0,0.0,83,0.00,,---,1.02,VWS V13.01,2013-09-07 03:21:00,
2013-09-06 20:22:00,64.9,59.7,29.68,West,259,0.0,0.0,83,0.00,,---,1.02,VWS V13.01,2013-09-07 03:22:00,
2013-09-06 20:23:00,64.9,59.7,29.68,ESE,112,0.0,0.0,83,0.00,,---,1.02,VWS V13.01,2013-09-07 03:23:00,
2013-09-06 20:24:00,64.9,59.7,29.68,ESE,112,0.0,0.0,83,0.00,,---,1.02,VWS V13.01,2013-09-07 03:24:00,
2013-09-06 20:27:00,64.4,59.5,29.68,WNW,296,0.0,0.0,84,0.00,,---,1.02,VWS V13.01,2013-09-07 03:27:00,
2013-09-06 20:28:00,64.4,59.5,29.68,WNW,296,0.0,0.0,84,0.00,,---,1.02,VWS V13.01,2013-09-07 03:28:00,
2013-09-06 20:30:00,64.4,59.8,29.68,WNW,296,0.0,0.0,85,0.00,,---,1.02,VWS V13.01,2013-09-07 03:30:00,
2013-09-06 20:32:00,64.4,59.8,29.68,WNW,285,0.0,0.0,85,0.00,,---,1.02,VWS V13.01,2013-09-07 03:32:00,
2013-09-06 20:33:00,64.4,59.8,29.68,WNW,285,0.0,0.0,85,0.00,,---,1.02,VWS V13.01,2013-09-07 03:33:00,
2013-09-06 20:34:00,64.4,59.8,29.68,WNW,285,0.0,0.0,85,0.00,,---,1.02,VWS V13.01,2013-09-07 03:34:00,
2013-09-06 20:36:00,64.4,59.8,29.68,WNW,285,0.0,0.0,85,0.00,,---,1.02,VWS V13.01,2013-09-07 03:36:00,
2013-09-06 20:37:00,64.4,59.8,29.68,WSW,249,2.2,2.2,85,0.00,,---,1.02,VWS V13.01,2013-09-07 03:37:00,
2013-09-06 20:38:00,64.4,59.8,29.68,SW,223,3.1,3.1,85,0.00,,---,1.02,VWS V13.01,2013-09-07 03:38:00,
2013-09-06 20:40:00,64.4,59.8,29.68,SW,223,2.7,2.7,85,0.00,,---,1.02,VWS V13.01,2013-09-07 03:40:00,
2013-09-06 20:41:00,64.4,59.8,29.68,WSW,250,0.0,2.7,85,0.00,,---,1.02,VWS V13.01,2013-09-07 03:41:00,
2013-09-06 20:42:00,64.4,59.8,29.68,WSW,250,2.2,2.2,85,0.00,,---,1.02,VWS V13.01,2013-09-07 03:42:00,
2013-09-06 20:43:00,64.4,59.8,29.68,SW,218,4.0,4.0,85,0.00,,---,1.02,VWS V13.01,2013-09-07 03:43:00,
2013-09-06 20:44:00,64.2,60.0,29.68,SW,218,4.0,4.0,86,0.00,,---,1.02,VWS V13.01,2013-09-07 03:44:00,
2013-09-06 20:46:00,64.2,60.0,29.68,SW,220,2.7,4.0,86,0.00,,---,1.02,VWS V13.01,2013-09-07 03:46:00,
2013-09-06 20:47:00,64.4,60.1,29.68,SW,220,2.7,2.7,86,0.00,,---,1.02,VWS V13.01,2013-09-07 03:47:00,
2013-09-06 20:48:00,64.4,60.1,29.68,SW,220,2.7,2.7,86,0.00,,---,1.02,VWS V13.01,2013-09-07 03:48:00,
2013-09-06 20:50:00,64.4,60.1,29.68,WSW,251,0.0,0.0,86,0.00,,---,1.02,VWS V13.01,2013-09-07 03:50:00,
2013-09-06 20:51:00,64.4,60.1,29.68,WSW,251,0.0,0.0,86,0.00,,---,1.02,VWS V13.01,2013-09-07 03:51:00,
2013-09-06 20:52:00,64.4,60.1,29.68,West,266,4.9,4.9,86,0.00,,---,1.02,VWS V13.01,2013-09-07 03:52:00,
2013-09-06 20:53:00,64.4,60.1,29.68,West,266,4.9,4.9,86,0.00,,---,1.02,VWS V13.01,2013-09-07 03:53:00,
2013-09-06 20:55:00,64.4,60.1,29.68,SSW,203,0.0,0.0,86,0.00,,---,1.02,VWS V13.01,2013-09-07 03:55:00,
2013-09-06 20:56:00,64.4,60.1,29.68,SSW,203,0.0,0.0,86,0.00,,---,1.02,VWS V13.01,2013-09-07 03:56:00,
2013-09-06 20:57:00,64.4,60.1,29.68,SSW,203,0.0,0.0,86,0.00,,---,1.02,VWS V13.01,2013-09-07 03:57:00,
2013-09-06 20:58:00,64.4,60.1,29.68,SSW,203,0.0,0.0,86,0.00,,---,1.02,VWS V13.01,2013-09-07 03:58:00,
2013-09-06 21:01:00,64.4,60.1,29.68,West,278,0.0,0.0,86,0.00,,---,1.02,VWS V13.01,2013-09-07 04:01:00,
2013-09-06 21:03:00,64.4,60.1,29.68,WSW,248,2.2,2.2,86,0.00,,---,1.02,VWS V13.01,2013-09-07 04:03:00,
2013-09-06 21:06:00,64.4,60.1,29.68,WSW,248,2.2,2.2,86,0.00,,---,1.02,VWS V13.01,2013-09-07 04:06:00,
2013-09-06 21:08:00,64.4,60.1,29.68,SE,139,0.0,0.0,86,0.00,,---,1.02,VWS V13.01,2013-09-07 04:08:00,
2013-09-06 21:11:00,64.4,60.1,29.68,SE,139,0.0,0.0,86,0.00,,---,1.02,VWS V13.01,2013-09-07 04:11:00,
2013-09-06 21:13:00,64.4,60.5,29.68,West,259,0.0,0.0,87,0.00,,---,1.02,VWS V13.01,2013-09-07 04:13:00,
2013-09-06 21:16:00,64.4,60.5,29.68,WSW,246,2.2,2.2,87,0.00,,---,1.02,VWS V13.01,2013-09-07 04:16:00,
2013-09-06 21:19:00,64.4,60.5,29.68,WSW,246,0.0,0.0,87,0.00,,---,1.02,VWS V13.01,2013-09-07 04:19:00,
2013-09-06 21:21:00,64.4,60.5,29.68,WSW,246,0.0,0.0,87,0.00,,---,1.02,VWS V13.01,2013-09-07 04:21:00,
2013-09-06 21:22:00,64.4,60.5,29.68,WSW,246,0.0,0.0,87,0.00,,---,1.02,VWS V13.01,2013-09-07 04:22:00,
2013-09-06 21:25:00,64.4,60.5,29.68,WSW,246,0.0,0.0,87,0.00,,---,1.02,VWS V13.01,2013-09-07 04:25:00,
2013-09-06 21:26:00,64.4,60.5,29.68,WSW,246,0.0,0.0,87,0.00,,---,1.02,VWS V13.01,2013-09-07 04:26:00,
2013-09-06 21:27:00,64.4,60.5,29.68,WSW,255,0.0,0.0,87,0.00,,---,1.02,VWS V13.01,2013-09-07 04:27:00,
2013-09-06 21:30:00,64.2,60.3,29.68,WSW,255,0.0,0.0,87,0.00,,---,1.02,VWS V13.01,2013-09-07 04:30:00,
2013-09-06 21:31:00,64.2,60.3,29.68,WSW,255,0.0,0.0,87,0.00,,---,1.02,VWS V13.01,2013-09-07 04:31:00,
2013-09-06 21:32:00,64.2,60.3,29.68,WSW,255,0.0,0.0,87,0.00,,---,1.02,VWS V13.01,2013-09-07 04:32:00,
2013-09-06 21:35:00,64.2,60.3,29.68,WSW,255,0.0,0.0,87,0.00,,---,1.02,VWS V13.01,2013-09-07 04:35:00,
2013-09-06 21:36:00,64.2,60.3,29.68,WSW,255,0.0,0.0,87,0.00,,---,1.02,VWS V13.01,2013-09-07 04:36:00,
2013-09-06 21:37:00,64.2,60.3,29.68,WSW,255,0.0,0.0,87,0.00,,---,1.02,VWS V13.01,2013-09-07 04:37:00,
2013-09-06 21:40:00,64.2,60.6,29.68,WSW,255,0.0,0.0,88,0.00,,---,1.02,VWS V13.01,2013-09-07 04:40:00,
2013-09-06 21:41:00,64.2,60.6,29.68,WSW,255,0.0,0.0,88,0.00,,---,1.02,VWS V13.01,2013-09-07 04:41:00,
2013-09-06 21:42:00,64.2,60.6,29.68,WSW,255,0.0,0.0,88,0.00,,---,1.02,VWS V13.01,2013-09-07 04:42:00,
2013-09-06 21:46:00,64.2,60.6,29.68,WSW,244,0.0,0.0,88,0.00,,---,1.02,VWS V13.01,2013-09-07 04:46:00,
2013-09-06 21:47:00,64.2,60.6,29.68,WSW,244,0.0,0.0,88,0.00,,---,1.02,VWS V13.01,2013-09-07 04:47:00,
2013-09-06 21:51:00,64.2,60.6,29.68,WSW,244,0.0,0.0,88,0.00,,---,1.02,VWS V13.01,2013-09-07 04:51:00,
2013-09-06 21:52:00,64.0,60.4,29.68,WSW,244,0.0,0.0,88,0.00,,---,1.02,VWS V13.01,2013-09-07 04:52:00,
2013-09-06 21:56:00,64.0,60.4,29.68,WSW,243,0.0,0.0,88,0.00,,---,1.02,VWS V13.01,2013-09-07 04:56:00,
2013-09-06 21:57:00,64.0,60.4,29.68,WSW,243,0.0,0.0,88,0.00,,---,1.02,VWS V13.01,2013-09-07 04:57:00,
2013-09-06 21:58:00,64.0,60.4,29.68,WSW,243,0.0,0.0,88,0.00,,---,1.02,VWS V13.01,2013-09-07 04:58:00,
2013-09-06 22:01:00,64.0,60.4,29.68,WSW,244,0.0,0.0,88,0.00,,---,1.02,VWS V13.01,2013-09-07 05:01:00,
2013-09-06 22:02:00,64.0,60.4,29.68,WSW,244,0.0,0.0,88,0.00,,---,1.02,VWS V13.01,2013-09-07 05:02:00,
2013-09-06 22:03:00,64.0,60.4,29.68,West,263,0.0,0.0,88,0.00,,---,1.02,VWS V13.01,2013-09-07 05:03:00,
2013-09-06 22:04:00,64.0,60.4,29.68,West,263,0.0,0.0,88,0.00,,---,1.02,VWS V13.01,2013-09-07 05:04:00,
2013-09-06 22:07:00,64.0,60.4,29.68,West,263,0.0,0.0,88,0.00,,---,1.02,VWS V13.01,2013-09-07 05:07:00,
2013-09-06 22:08:00,64.0,60.4,29.68,West,263,0.0,0.0,88,0.00,,---,1.02,VWS V13.01,2013-09-07 05:08:00,
2013-09-06 22:09:00,64.0,60.4,29.68,West,263,0.0,0.0,88,0.00,,---,1.02,VWS V13.01,2013-09-07 05:09:00,
2013-09-06 22:10:00,64.0,60.4,29.68,West,263,0.0,0.0,88,0.00,,---,1.02,VWS V13.01,2013-09-07 05:10:00,
2013-09-06 22:12:00,64.0,60.4,29.68,SSW,210,3.6,3.6,88,0.00,,---,1.02,VWS V13.01,2013-09-07 05:12:00,
2013-09-06 22:13:00,64.0,60.4,29.68,SSW,210,3.6,3.6,88,0.00,,---,1.02,VWS V13.01,2013-09-07 05:13:00,
2013-09-06 22:16:00,64.0,60.4,29.68,SSW,211,0.0,0.0,88,0.00,,---,1.02,VWS V13.01,2013-09-07 05:16:00,
2013-09-06 22:17:00,64.2,60.6,29.68,SSW,210,0.0,0.0,88,0.00,,---,1.02,VWS V13.01,2013-09-07 05:17:00,
2013-09-06 22:18:00,64.2,60.6,29.68,SSW,210,0.0,0.0,88,0.00,,---,1.02,VWS V13.01,2013-09-07 05:18:00,
2013-09-06 22:21:00,64.2,60.6,29.68,SSW,210,0.0,0.0,88,0.00,,---,1.02,VWS V13.01,2013-09-07 05:21:00,
2013-09-06 22:22:00,64.2,60.6,29.68,SSW,210,0.0,0.0,88,0.00,,---,1.02,VWS V13.01,2013-09-07 05:22:00,
2013-09-06 22:23:00,64.2,60.6,29.68,SSW,210,0.0,0.0,88,0.00,,---,1.02,VWS V13.01,2013-09-07 05:23:00,
2013-09-06 22:26:00,64.0,60.4,29.68,SW,227,0.0,0.0,88,0.00,,---,1.02,VWS V13.01,2013-09-07 05:26:00,
2013-09-06 22:27:00,64.0,60.4,29.68,SW,227,0.0,0.0,88,0.00,,---,1.02,VWS V13.01,2013-09-07 05:27:00,
2013-09-06 22:28:00,64.0,60.4,29.68,WSW,256,0.0,0.0,88,0.00,,---,1.02,VWS V13.01,2013-09-07 05:28:00,
2013-09-06 22:32:00,64.2,60.6,29.68,WSW,256,0.0,0.0,88,0.00,,---,1.02,VWS V13.01,2013-09-07 05:32:00,
2013-09-06 22:33:00,64.2,60.6,29.68,WSW,256,0.0,0.0,88,0.00,,---,1.02,VWS V13.01,2013-09-07 05:33:00,
2013-09-06 22:37:00,64.0,60.4,29.68,SW,236,0.0,2.7,88,0.00,,---,1.02,VWS V13.01,2013-09-07 05:37:00,
2013-09-06 22:38:00,64.0,60.4,29.68,SW,236,0.0,2.7,88,0.00,,---,1.02,VWS V13.01,2013-09-07 05:38:00,
2013-09-06 22:42:00,64.0,60.4,29.68,SW,236,0.0,0.0,88,0.00,,---,1.02,VWS V13.01,2013-09-07 05:42:00,
2013-09-06 22:43:00,64.0,60.4,29.68,SW,236,0.0,0.0,88,0.00,,---,1.02,VWS V13.01,2013-09-07 05:43:00,
2013-09-06 22:47:00,64.0,60.4,29.68,SW,236,0.0,0.0,88,0.00,,---,1.02,VWS V13.01,2013-09-07 05:47:00,
2013-09-06 22:48:00,64.0,60.4,29.68,SW,236,0.0,0.0,88,0.00,,---,1.02,VWS V13.01,2013-09-07 05:48:00,
2013-09-06 22:49:00,64.0,60.4,29.68,SW,236,0.0,0.0,88,0.00,,---,1.02,VWS V13.01,2013-09-07 05:49:00,
2013-09-06 22:53:00,63.9,60.2,29.68,SW,236,0.0,0.0,88,0.00,,---,1.02,VWS V13.01,2013-09-07 05:53:00,
2013-09-06 22:54:00,63.9,60.2,29.68,SW,236,0.0,0.0,88,0.00,,---,1.02,VWS V13.01,2013-09-07 05:54:00,
2013-09-06 22:58:00,63.9,60.2,29.68,SW,236,0.0,0.0,88,0.00,,---,1.02,VWS V13.01,2013-09-07 05:58:00,
2013-09-06 22:59:00,63.9,60.2,29.68,SW,236,0.0,0.0,88,0.00,,---,1.02,VWS V13.01,2013-09-07 05:59:00,
2013-09-06 23:00:00,63.9,60.2,29.68,SW,236,0.0,0.0,88,0.00,,---,1.02,VWS V13.01,2013-09-07 06:00:00,
2013-09-06 23:03:00,63.7,60.1,29.68,SW,236,0.0,0.0,88,0.00,,---,1.02,VWS V13.01,2013-09-07 06:03:00,
2013-09-06 23:04:00,63.7,60.1,29.68,SW,236,0.0,0.0,88,0.00,,---,1.02,VWS V13.01,2013-09-07 06:04:00,
2013-09-06 23:05:00,63.7,60.1,29.68,SW,236,0.0,0.0,88,0.00,,---,1.02,VWS V13.01,2013-09-07 06:05:00,
2013-09-06 23:08:00,63.7,60.4,29.68,SW,236,0.0,0.0,89,0.00,,---,1.02,VWS V13.01,2013-09-07 06:08:00,
2013-09-06 23:09:00,63.7,60.4,29.68,SW,236,0.0,0.0,89,0.00,,---,1.02,VWS V13.01,2013-09-07 06:09:00,
2013-09-06 23:10:00,63.5,60.2,29.68,SW,236,0.0,0.0,89,0.00,,---,1.02,VWS V13.01,2013-09-07 06:10:00,
2013-09-06 23:13:00,63.5,60.2,29.68,WNW,300,0.0,0.0,89,0.00,,---,1.02,VWS V13.01,2013-09-07 06:13:00,
2013-09-06 23:14:00,63.5,60.2,29.68,WNW,300,0.0,0.0,89,0.00,,---,1.02,VWS V13.01,2013-09-07 06:14:00,
2013-09-06 23:15:00,63.5,60.2,29.68,WNW,300,0.0,0.0,89,0.00,,---,1.02,VWS V13.01,2013-09-07 06:15:00,
2013-09-06 23:16:00,63.5,60.2,29.68,WNW,300,0.0,0.0,89,0.00,,---,1.02,VWS V13.01,2013-09-07 06:16:00,
2013-09-06 23:18:00,63.5,60.2,29.68,WNW,300,0.0,0.0,89,0.00,,---,1.02,VWS V13.01,2013-09-07 06:18:00,
2013-09-06 23:19:00,63.5,60.2,29.68,WNW,300,0.0,0.0,89,0.00,,---,1.02,VWS V13.01,2013-09-07 06:19:00,
2013-09-06 23:20:00,63.5,60.2,29.68,WNW,300,0.0,0.0,89,0.00,,---,1.02,VWS V13.01,2013-09-07 06:20:00,
2013-09-06 23:21:00,63.5,60.2,29.68,WNW,300,0.0,0.0,89,0.00,,---,1.02,VWS V13.01,2013-09-07 06:21:00,
2013-09-06 23:23:00,63.3,60.0,29.68,WNW,300,0.0,0.0,89,0.00,,---,1.02,VWS V13.01,2013-09-07 06:23:00,
2013-09-06 23:24:00,63.3,60.0,29.68,WNW,300,0.0,0.0,89,0.00,,---,1.02,VWS V13.01,2013-09-07 06:24:00,
2013-09-06 23:25:00,63.3,60.0,29.68,WNW,300,0.0,0.0,89,0.00,,---,1.02,VWS V13.01,2013-09-07 06:25:00,
2013-09-06 23:26:00,63.3,60.0,29.68,WNW,300,0.0,0.0,89,0.00,,---,1.02,VWS V13.01,2013-09-07 06:26:00,
2013-09-06 23:27:00,63.3,60.0,29.68,WNW,300,0.0,0.0,89,0.00,,---,1.02,VWS V13.01,2013-09-07 06:27:00,
2013-09-06 23:28:00,63.1,59.8,29.68,WNW,300,0.0,0.0,89,0.00,,---,1.02,VWS V13.01,2013-09-07 06:28:00,
2013-09-06 23:29:00,63.1,59.8,29.68,WNW,300,0.0,0.0,89,0.00,,---,1.02,VWS V13.01,2013-09-07 06:29:00,
2013-09-06 23:30:00,63.1,59.8,29.68,WNW,300,0.0,0.0,89,0.00,,---,1.02,VWS V13.01,2013-09-07 06:30:00,
2013-09-06 23:31:00,63.0,59.7,29.68,WNW,300,0.0,0.0,89,0.00,,---,1.02,VWS V13.01,2013-09-07 06:31:00,
2013-09-06 23:32:00,63.0,59.7,29.68,WNW,300,0.0,0.0,89,0.00,,---,1.02,VWS V13.01,2013-09-07 06:32:00,
2013-09-06 23:33:00,63.0,59.7,29.68,WNW,300,0.0,0.0,89,0.00,,---,1.02,VWS V13.01,2013-09-07 06:33:00,
2013-09-06 23:34:00,63.0,59.7,29.68,WNW,300,0.0,0.0,89,0.00,,---,1.02,VWS V13.01,2013-09-07 06:34:00,
2013-09-06 23:35:00,63.0,59.7,29.68,WNW,300,0.0,0.0,89,0.00,,---,1.02,VWS V13.01,2013-09-07 06:35:00,
2013-09-06 23:36:00,63.0,59.7,29.68,WNW,300,0.0,0.0,89,0.00,,---,1.02,VWS V13.01,2013-09-07 06:36:00,
2013-09-06 23:38:00,63.0,59.7,29.68,WNW,300,0.0,0.0,89,0.00,,---,1.02,VWS V13.01,2013-09-07 06:38:00,
2013-09-06 23:39:00,63.0,59.7,29.68,WNW,300,0.0,0.0,89,0.00,,---,1.02,VWS V13.01,2013-09-07 06:39:00,
2013-09-06 23:40:00,63.0,59.7,29.68,WNW,300,0.0,0.0,89,0.00,,---,1.02,VWS V13.01,2013-09-07 06:40:00,
2013-09-06 23:41:00,63.0,59.7,29.68,WNW,300,0.0,0.0,89,0.00,,---,1.02,VWS V13.01,2013-09-07 06:41:00,
2013-09-06 23:43:00,63.0,59.7,29.68,WNW,300,0.0,0.0,89,0.00,,---,1.02,VWS V13.01,2013-09-07 06:43:00,
2013-09-06 23:44:00,63.0,59.7,29.68,WNW,300,0.0,0.0,89,0.00,,---,1.02,VWS V13.01,2013-09-07 06:44:00,
2013-09-06 23:46:00,63.0,59.7,29.68,WNW,300,0.0,0.0,89,0.00,,---,1.02,VWS V13.01,2013-09-07 06:46:00,
2013-09-06 23:47:00,62.8,59.5,29.68,WNW,300,0.0,0.0,89,0.00,,---,1.02,VWS V13.01,2013-09-07 06:47:00,
2013-09-06 23:48:00,62.8,59.5,29.68,WNW,300,0.0,0.0,89,0.00,,---,1.02,VWS V13.01,2013-09-07 06:48:00,
2013-09-06 23:49:00,62.6,59.3,29.68,WNW,300,0.0,0.0,89,0.00,,---,1.02,VWS V13.01,2013-09-07 06:49:00,
2013-09-06 23:51:00,62.6,59.3,29.68,WNW,300,0.0,0.0,89,0.00,,---,1.02,VWS V13.01,2013-09-07 06:51:00,
2013-09-06 23:53:00,62.6,59.3,29.68,WNW,300,0.0,0.0,89,0.00,,---,1.02,VWS V13.01,2013-09-07 06:53:00,
2013-09-06 23:54:00,62.6,59.3,29.68,WNW,300,0.0,0.0,89,0.00,,---,1.02,VWS V13.01,2013-09-07 06:54:00,
2013-09-06 23:55:00,62.6,59.3,29.68,WNW,300,0.0,0.0,89,0.00,,---,1.02,VWS V13.01,2013-09-07 06:55:00,
2013-09-06 23:56:00,62.6,59.6,29.68,WNW,300,0.0,0.0,90,0.00,,---,1.02,VWS V13.01,2013-09-07 06:56:00,
2013-09-06 23:57:00,62.6,59.6,29.68,WNW,300,0.0,0.0,90,0.00,,---,1.02,VWS V13.01,2013-09-07 06:57:00,
2013-09-06 23:58:00,62.6,59.6,29.68,WNW,300,0.0,0.0,90,0.00,,---,1.02,VWS V13.01,2013-09-07 06:58:00,
2013-09-06 23:59:00,62.4,59.5,29.68,WNW,300,0.0,0.0,90,0.00,,---,1.02,VWS V13.01,2013-09-07 06:59:00,